FW7316 Weather Reports


Display with metric or nautical units.
time (UTC)temp
F
wind
direction
speed
MPH
gust
MPH
rain 1hr
in
rain 24hr
in
rain mn
in
humidity
%
barometer
mb
20260508170203 65 127 3.0 5.0 0.00 0.00 0.00 77 1013.8
20260508170100 65 108 3.0 5.0 0.00 0.00 0.00 77 1013.8
20260508170004 65 114 3.0 5.0 0.00 0.00 0.00 77 1013.8
20260508165904 65 120 3.0 5.0 0.00 0.00 0.00 77 1013.8
20260508165804 65 120 3.0 5.0 0.00 0.00 0.00 77 1013.8
20260508165659 65 118 4.0 5.0 0.00 0.00 0.00 77 1013.8
20260508165501 65 135 4.0 6.0 0.00 0.00 0.00 77 1013.7
20260508165401 65 135 2.0 6.0 0.00 0.00 0.00 77 1013.7
20260508165306 65 101 2.0 6.0 0.00 0.00 0.00 77 1013.8
20260508165200 65 101 1.0 6.0 0.00 0.00 0.00 77 1013.7
20260508165100 65 101 5.0 6.0 0.00 0.00 0.00 77 1013.7
20260508165005 65 119 2.0 6.0 0.00 0.00 0.00 77 1013.7
20260508164859 65 106 4.0 6.0 0.00 0.00 0.00 76 1013.8
20260508164759 65 90 3.0 6.0 0.00 0.00 0.00 76 1013.8
20260508164559 65 91 6.0 6.0 0.00 0.00 0.00 76 1013.8
20260508164501 65 132 3.0 6.0 0.00 0.00 0.00 77 1013.8
20260508164402 65 136 4.0 7.0 0.00 0.00 0.00 77 1013.8
20260508164259 65 120 2.0 7.0 0.00 0.00 0.00 77 1013.8
20260508164102 65 126 3.0 7.0 0.00 0.00 0.00 76 1013.8
20260508164001 65 117 4.0 7.0 0.00 0.00 0.00 76 1013.8
20260508163859 65 103 5.0 7.0 0.00 0.00 0.00 77 1013.7
20260508163700 65 120 4.0 7.0 0.00 0.00 0.00 76 1013.7
20260508163600 65 99 5.0 7.0 0.00 0.00 0.00 76 1013.7
20260508163503 65 117 3.0 7.0 0.00 0.00 0.00 76 1013.7
20260508163401 65 98 5.0 7.0 0.00 0.00 0.00 75 1013.7
20260508163203 66 74 4.0 7.0 0.00 0.00 0.00 76 1013.7
20260508163101 66 94 6.0 7.0 0.00 0.00 0.00 76 1013.7
20260508162905 66 104 5.0 7.0 0.00 0.00 0.00 76 1013.7
20260508162800 66 100 5.0 7.0 0.00 0.00 0.00 75 1013.7
20260508162700 66 98 3.0 7.0 0.00 0.00 0.00 76 1013.7
20260508162602 66 113 4.0 7.0 0.00 0.00 0.00 76 1013.7
20260508162500 66 118 4.0 7.0 0.00 0.00 0.00 76 1013.7
20260508162306 66 136 3.0 8.0 0.00 0.00 0.00 76 1013.7
20260508162159 66 102 2.0 8.0 0.00 0.00 0.00 76 1013.7
20260508162102 66 102 3.0 8.0 0.00 0.00 0.00 75 1013.7
20260508162006 66 102 2.0 8.0 0.00 0.00 0.00 75 1013.7
20260508161901 66 102 2.0 8.0 0.00 0.00 0.00 75 1013.7
20260508161759 66 98 5.0 8.0 0.00 0.00 0.00 75 1013.7
20260508161703 66 90 5.0 8.0 0.00 0.00 0.00 75 1013.7
20260508161600 66 77 4.0 8.0 0.00 0.00 0.00 75 1013.7
20260508161403 66 88 6.0 8.0 0.00 0.00 0.00 75 1013.7
20260508161301 66 73 5.0 8.0 0.00 0.00 0.00 75 1013.7
20260508161106 66 96 8.0 8.0 0.00 0.00 0.00 75 1013.6
20260508161000 66 82 6.0 8.0 0.00 0.00 0.00 75 1013.7
20260508160900 66 119 7.0 9.0 0.00 0.00 0.00 75 1013.7
20260508160601 67 112 5.0 9.0 0.00 0.00 0.00 75 1013.7
20260508160502 67 111 5.0 9.0 0.00 0.00 0.00 75 1013.6
20260508160400 67 136 3.0 9.0 0.00 0.00 0.00 76 1013.7
20260508160259 67 109 4.0 9.0 0.00 0.00 0.00 76 1013.6
20260508160117 67 78 7.0 9.0 0.00 0.00 0.00 75 1013.7
20260508160005 67 76 5.0 9.0 0.00 0.00 0.00 75 1013.7
20260508155904 67 76 4.0 7.0 0.00 0.00 0.00 75 1013.7
20260508155759 67 70 7.0 7.0 0.00 0.00 0.00 75 1013.7
20260508155707 67 61 5.0 8.0 0.00 0.00 0.00 76 1013.7
20260508155602 67 65 3.0 8.0 0.00 0.00 0.00 76 1013.7
20260508155500 67 88 3.0 9.0 0.00 0.00 0.00 76 1013.7
20260508155401 67 82 6.0 9.0 0.00 0.00 0.00 75 1013.7
20260508155306 67 92 7.0 9.0 0.00 0.00 0.00 75 1013.7
20260508155100 67 78 4.0 9.0 0.00 0.00 0.00 75 1013.7
20260508155005 67 82 5.0 9.0 0.00 0.00 0.00 75 1013.7
20260508154900 67 81 6.0 9.0 0.00 0.00 0.00 75 1013.6
20260508154800 67 65 5.0 9.0 0.00 0.00 0.00 75 1013.6
20260508154601 67 44 5.0 9.0 0.00 0.00 0.00 75 1013.7
20260508154501 67 54 4.0 7.0 0.00 0.00 0.00 75 1013.7
20260508154403 67 66 3.0 8.0 0.00 0.00 0.00 75 1013.7
20260508154301 67 51 4.0 8.0 0.00 0.00 0.00 74 1013.7
20260508154200 67 72 4.0 8.0 0.00 0.00 0.00 74 1013.7
20260508154102 67 93 6.0 8.0 0.00 0.00 0.00 75 1013.7
20260508154000 67 105 3.0 8.0 0.00 0.00 0.00 74 1013.6
20260508153901 67 94 2.0 8.0 0.00 0.00 0.00 74 1013.7
20260508153700 67 82 7.0 9.0 0.00 0.00 0.00 74 1013.7
20260508153559 67 100 2.0 9.0 0.00 0.00 0.00 74 1013.7
20260508153359 67 74 8.0 9.0 0.00 0.00 0.00 74 1013.7
20260508153300 67 96 8.0 9.0 0.00 0.00 0.00 74 1013.7
20260508153205 67 67 4.0 9.0 0.00 0.00 0.00 74 1013.7
20260508153100 67 66 3.0 9.0 0.00 0.00 0.00 74 1013.7
20260508153001 67 78 3.0 9.0 0.00 0.00 0.00 74 1013.6
20260508152902 67 78 5.0 9.0 0.00 0.00 0.00 75 1013.7
20260508152759 67 67 5.0 7.0 0.00 0.00 0.00 74 1013.6
20260508152659 67 66 7.0 7.0 0.00 0.00 0.00 74 1013.6
20260508152604 67 39 5.0 8.0 0.00 0.00 0.00 74 1013.6
20260508152402 67 53 3.0 8.0 0.00 0.00 0.00 74 1013.7
20260508152100 67 64 3.0 8.0 0.00 0.00 0.00 74 1013.7
20260508152005 67 67 3.0 8.0 0.00 0.00 0.00 74 1013.7
20260508151903 67 61 4.0 7.0 0.00 0.00 0.00 74 1013.6
20260508151712 67 67 2.0 6.0 0.00 0.00 0.00 75 1013.7
20260508151559 67 69 3.0 6.0 0.00 0.00 0.00 74 1013.6
20260508151502 67 69 3.0 6.0 0.00 0.00 0.00 74 1013.7
20260508151404 67 69 3.0 6.0 0.00 0.00 0.00 73 1013.7
20260508151302 67 64 4.0 6.0 0.00 0.00 0.00 72 1013.6
20260508151204 67 42 5.0 6.0 0.00 0.00 0.00 73 1013.7
20260508151105 67 57 4.0 6.0 0.00 0.00 0.00 73 1013.7
20260508151002 67 28 5.0 6.0 0.00 0.00 0.00 73 1013.7
20260508150900 67 82 5.0 6.0 0.00 0.00 0.00 73 1013.7
20260508150700 67 55 3.0 6.0 0.00 0.00 0.00 74 1013.7
20260508150600 67 34 6.0 7.0 0.00 0.00 0.00 74 1013.7
20260508150505 67 67 4.0 7.0 0.00 0.00 0.00 74 1013.7
20260508150400 67 77 4.0 7.0 0.00 0.00 0.00 73 1013.7
20260508150259 67 65 5.0 6.0 0.00 0.00 0.00 74 1013.7
20260508150203 67 84 5.0 7.0 0.00 0.00 0.00 73 1013.7
20260508150100 67 65 4.0 7.0 0.00 0.00 0.00 73 1013.7
20260508150005 67 42 5.0 7.0 0.00 0.00 0.00 74 1013.8
20260508145903 67 95 5.0 7.0 0.00 0.00 0.00 75 1013.8
20260508145800 67 99 6.0 6.0 0.00 0.00 0.00 74 1013.8
20260508145700 67 104 3.0 6.0 0.00 0.00 0.00 74 1013.8
20260508145500 67 58 5.0 8.0 0.00 0.00 0.00 73 1013.8
20260508145400 67 55 3.0 8.0 0.00 0.00 0.00 73 1013.8
20260508145306 67 68 2.0 8.0 0.00 0.00 0.00 74 1013.8
20260508145200 67 52 5.0 8.0 0.00 0.00 0.00 74 1013.8
20260508145100 67 76 3.0 8.0 0.00 0.00 0.00 74 1013.8
20260508145008 67 95 3.0 8.0 0.00 0.00 0.00 73 1013.8
20260508144800 67 43 4.0 8.0 0.00 0.00 0.00 72 1013.8
20260508144705 67 59 3.0 8.0 0.00 0.00 0.00 73 1013.8
20260508144502 67 69 5.0 7.0 0.00 0.00 0.00 74 1013.8
20260508144403 67 45 4.0 8.0 0.00 0.00 0.00 74 1013.7
20260508144259 67 61 4.0 8.0 0.00 0.00 0.00 74 1013.7
20260508144202 67 60 3.0 9.0 0.00 0.00 0.00 73 1013.8
20260508144000 67 53 6.0 9.0 0.00 0.00 0.00 73 1013.8
20260508143901 67 63 7.0 9.0 0.00 0.00 0.00 73 1013.8
20260508143803 67 87 7.0 9.0 0.00 0.00 0.00 73 1013.8
20260508143659 67 70 8.0 9.0 0.00 0.00 0.00 73 1013.7
20260508143600 67 67 3.0 9.0 0.00 0.00 0.00 73 1013.8
20260508143505 67 44 4.0 9.0 0.00 0.00 0.00 74 1013.8
20260508143401 67 44 4.0 9.0 0.00 0.00 0.00 74 1013.8
20260508143300 67 57 4.0 9.0 0.00 0.00 0.00 74 1013.8
20260508143205 67 74 5.0 9.0 0.00 0.00 0.00 74 1013.8
20260508143101 67 80 8.0 8.0 0.00 0.00 0.00 74 1013.9
20260508143002 67 50 1.0 7.0 0.00 0.00 0.00 73 1013.8
20260508142902 67 31 4.0 7.0 0.00 0.00 0.00 73 1013.9
20260508142759 67 42 3.0 7.0 0.00 0.00 0.00 73 1013.9
20260508142700 67 38 4.0 8.0 0.00 0.00 0.00 73 1013.9
20260508142602 67 43 4.0 8.0 0.00 0.00 0.00 72 1013.9
20260508142500 67 28 3.0 8.0 0.00 0.00 0.00 72 1013.9
20260508142401 67 50 7.0 8.0 0.00 0.00 0.00 71 1013.9
20260508142306 67 28 5.0 8.0 0.00 0.00 0.00 71 1013.9
20260508142200 67 32 5.0 8.0 0.00 0.00 0.00 71 1013.9
20260508142059 67 30 6.0 8.0 0.00 0.00 0.00 72 1013.9
20260508142006 67 53 5.0 8.0 0.00 0.00 0.00 72 1013.9
20260508141900 67 59 3.0 8.0 0.00 0.00 0.00 72 1013.9
20260508141800 67 42 6.0 8.0 0.00 0.00 0.00 71 1013.8
20260508141702 67 47 7.0 7.0 0.00 0.00 0.00 72 1013.9
20260508141600 67 43 4.0 7.0 0.00 0.00 0.00 73 1013.8
20260508141501 67 28 5.0 7.0 0.00 0.00 0.00 74 1013.8
20260508141402 67 38 2.0 7.0 0.00 0.00 0.00 74 1013.8
20260508141301 67 44 3.0 7.0 0.00 0.00 0.00 74 1013.8
20260508141200 67 43 6.0 8.0 0.00 0.00 0.00 73 1013.8
20260508141103 67 66 4.0 8.0 0.00 0.00 0.00 74 1013.8
20260508141001 67 47 6.0 8.0 0.00 0.00 0.00 73 1013.9
20260508140859 67 76 3.0 8.0 0.00 0.00 0.00 73 1013.8
20260508140804 67 77 4.0 8.0 0.00 0.00 0.00 73 1013.9
20260508140604 67 19 5.0 8.0 0.00 0.00 0.00 72 1013.9
20260508140504 67 32 5.0 8.0 0.00 0.00 0.00 72 1013.9
20260508140300 67 42 6.0 8.0 0.00 0.00 0.00 73 1013.9
20260508140204 67 54 4.0 9.0 0.00 0.00 0.00 72 1013.9
20260508140130 67 26 3.0 9.0 0.00 0.00 0.00 72 1013.9
20260508135800 67 54 5.0 9.0 0.00 0.00 0.00 72 1013.9
20260508135702 67 69 8.0 9.0 0.00 0.00 0.00 71 1013.9
20260508135606 67 88 6.0 9.0 0.00 0.00 0.00 70 1013.9
20260508135500 67 49 6.0 9.0 0.00 0.00 0.00 71 1013.9
20260508135401 67 55 6.0 9.0 0.00 0.00 0.00 71 1013.9
20260508135202 67 52 7.0 9.0 0.00 0.00 0.00 71 1013.9
20260508135005 67 29 6.0 8.0 0.00 0.00 0.00 71 1013.9
20260508134901 67 53 4.0 8.0 0.00 0.00 0.00 71 1013.9
20260508134800 67 61 2.0 8.0 0.00 0.00 0.00 71 1013.9
20260508134704 67 60 5.0 8.0 0.00 0.00 0.00 70 1013.9
20260508134601 67 60 4.0 8.0 0.00 0.00 0.00 70 1013.9
20260508134529 67 58 7.0 8.0 0.00 0.00 0.00 71 1013.9
20260508134404 67 40 7.0 8.0 0.00 0.00 0.00 72 1013.9
20260508134300 67 67 5.0 8.0 0.00 0.00 0.00 72 1013.9
20260508134201 67 31 5.0 8.0 0.00 0.00 0.00 72 1013.9
20260508134103 67 31 3.0 8.0 0.00 0.00 0.00 71 1013.9
20260508134000 67 31 3.0 8.0 0.00 0.00 0.00 71 1013.9
20260508133859 67 31 2.0 8.0 0.00 0.00 0.00 71 1014.0
20260508133802 67 26 6.0 8.0 0.00 0.00 0.00 70 1013.9
20260508133659 67 24 5.0 8.0 0.00 0.00 0.00 70 1013.9
20260508133600 67 24 5.0 8.0 0.00 0.00 0.00 71 1014.0
20260508133503 68 39 6.0 8.0 0.00 0.00 0.00 70 1014.0
20260508133359 68 46 3.0 8.0 0.00 0.00 0.00 70 1014.0
20260508133300 68 37 7.0 8.0 0.00 0.00 0.00 70 1014.0
20260508133204 68 37 7.0 7.0 0.00 0.00 0.00 70 1014.0
20260508133100 68 42 5.0 7.0 0.00 0.00 0.00 70 1014.0
20260508133000 68 53 3.0 7.0 0.00 0.00 0.00 71 1014.0
20260508132902 68 55 2.0 8.0 0.00 0.00 0.00 72 1014.0
20260508132802 68 82 3.0 8.0 0.00 0.00 0.00 72 1014.0
20260508132603 68 76 7.0 9.0 0.00 0.00 0.00 72 1014.0
20260508132403 68 44 5.0 9.0 0.00 0.00 0.00 74 1014.0
20260508132307 68 47 5.0 9.0 0.00 0.00 0.00 74 1014.0
20260508132200 68 21 3.0 9.0 0.00 0.00 0.00 73 1014.0
20260508132100 68 53 2.0 9.0 0.00 0.00 0.00 73 1014.0
20260508132005 68 59 4.0 9.0 0.00 0.00 0.00 72 1014.0
20260508131900 68 44 4.0 9.0 0.00 0.00 0.00 73 1014.0
20260508131802 68 34 5.0 9.0 0.00 0.00 0.00 74 1014.0
20260508131702 68 71 7.0 8.0 0.00 0.00 0.00 73 1014.0
20260508131600 68 36 5.0 8.0 0.00 0.00 0.00 74 1014.0
20260508131500 68 40 6.0 8.0 0.00 0.00 0.00 74 1014.0
20260508131403 68 28 3.0 9.0 0.00 0.00 0.00 72 1014.0
20260508131102 68 36 6.0 9.0 0.00 0.00 0.00 72 1014.0
20260508130901 68 30 6.0 9.0 0.00 0.00 0.00 72 1014.0
20260508130700 68 38 6.0 9.0 0.00 0.00 0.00 71 1014.0
20260508130600 68 43 5.0 9.0 0.00 0.00 0.00 71 1014.0
20260508130503 68 50 7.0 9.0 0.00 0.00 0.00 71 1014.0
20260508130400 68 58 9.0 9.0 0.00 0.00 0.00 72 1014.0
20260508130259 68 43 5.0 10.0 0.00 0.00 0.00 72 1014.0
20260508130100 68 61 4.0 9.0 0.00 0.00 0.00 72 1014.0
20260508130005 68 38 5.0 9.0 0.00 0.00 0.00 73 1014.0
20260508125904 68 26 5.0 9.0 0.00 0.00 0.00 72 1014.0
20260508125759 68 23 6.0 9.0 0.00 0.00 0.00 72 1014.0
20260508125700 68 30 6.0 9.0 0.00 0.00 0.00 72 1014.0
20260508125603 68 30 5.0 11.0 0.00 0.00 0.00 72 1014.0
20260508125459 68 29 8.0 11.0 0.00 0.00 0.00 72 1014.0
20260508125400 68 51 3.0 11.0 0.00 0.00 0.00 72 1014.0
20260508125305 68 82 7.0 11.0 0.00 0.00 0.00 73 1014.0
20260508125201 68 37 5.0 11.0 0.00 0.00 0.00 72 1014.0
20260508125100 68 55 8.0 11.0 0.00 0.00 0.00 73 1014.0
20260508125006 68 73 4.0 11.0 0.00 0.00 0.00 73 1014.0
20260508124900 68 74 9.0 11.0 0.00 0.00 0.00 73 1014.0
20260508124801 68 59 9.0 11.0 0.00 0.00 0.00 73 1014.0
20260508124702 68 39 5.0 11.0 0.00 0.00 0.00 72 1014.0
20260508124559 68 78 10.0 11.0 0.00 0.00 0.00 72 1014.0
20260508124500 68 47 6.0 10.0 0.00 0.00 0.00 73 1014.0
20260508124403 68 79 3.0 10.0 0.00 0.00 0.00 73 1013.9
20260508124201 68 49 6.0 10.0 0.00 0.00 0.00 72 1014.0
20260508124103 68 49 5.0 10.0 0.00 0.00 0.00 72 1014.0
20260508124003 68 41 8.0 10.0 0.00 0.00 0.00 73 1014.0
20260508123900 68 48 7.0 10.0 0.00 0.00 0.00 71 1014.0
20260508123804 68 76 8.0 11.0 0.00 0.00 0.00 71 1014.0
20260508123700 68 65 7.0 9.0 0.00 0.00 0.00 71 1013.9
20260508123559 68 22 9.0 10.0 0.00 0.00 0.00 71 1014.0
20260508123503 68 37 3.0 10.0 0.00 0.00 0.00 71 1014.0
20260508123400 68 67 5.0 10.0 0.00 0.00 0.00 71 1014.0
20260508123300 68 48 5.0 10.0 0.00 0.00 0.00 72 1014.0
20260508123202 68 59 5.0 11.0 0.00 0.00 0.00 71 1014.0
20260508123102 68 60 8.0 11.0 0.00 0.00 0.00 70 1014.0
20260508122759 68 49 7.0 11.0 0.00 0.00 0.00 71 1014.0
20260508122659 68 30 6.0 11.0 0.00 0.00 0.00 71 1014.1
20260508122602 68 24 5.0 11.0 0.00 0.00 0.00 71 1014.0
20260508122501 68 31 6.0 11.0 0.00 0.00 0.00 70 1014.1
20260508122401 68 33 4.0 11.0 0.00 0.00 0.00 71 1014.1
20260508122201 68 30 9.0 10.0 0.00 0.00 0.00 71 1014.1
20260508122004 68 57 8.0 10.0 0.00 0.00 0.00 71 1014.0
20260508121859 68 26 7.0 9.0 0.00 0.00 0.00 72 1014.1
20260508121800 68 43 6.0 10.0 0.00 0.00 0.00 72 1014.1
20260508121702 68 47 5.0 11.0 0.00 0.00 0.00 74 1014.0
20260508121602 68 58 3.0 11.0 0.00 0.00 0.00 73 1014.1
20260508121501 68 66 5.0 11.0 0.00 0.00 0.00 72 1014.1
20260508121403 68 72 4.0 11.0 0.00 0.00 0.00 72 1014.1
20260508121300 68 29 7.0 11.0 0.00 0.00 0.00 71 1014.0
20260508121159 68 71 7.0 11.0 0.00 0.00 0.00 73 1014.0
20260508121103 68 66 3.0 11.0 0.00 0.00 0.00 72 1014.0
20260508121000 68 65 9.0 11.0 0.00 0.00 0.00 72 1014.0
20260508120805 68 66 7.0 11.0 0.00 0.00 0.00 71 1014.1
20260508120659 68 19 6.0 11.0 0.00 0.00 0.00 71 1014.0
20260508120600 68 32 11.0 11.0 0.00 0.00 0.00 71 1014.0
20260508120503 68 30 9.0 11.0 0.00 0.00 0.00 71 1014.1
20260508120359 68 40 5.0 12.0 0.00 0.00 0.00 69 1014.1
20260508120300 69 44 4.0 12.0 0.00 0.00 0.00 69 1014.1
20260508120204 69 19 5.0 12.0 0.00 0.00 0.00 70 1014.1
20260508120116 69 26 7.0 12.0 0.00 0.00 0.00 70 1014.1
20260508120005 69 36 9.0 12.0 0.00 0.00 0.00 70 1014.0
20260508115902 69 35 9.0 12.0 0.00 0.00 0.00 70 1014.0
20260508115659 70 53 3.0 13.0 0.00 0.00 0.00 72 1014.1
20260508115606 70 84 5.0 13.0 0.00 0.00 0.00 71 1014.1
20260508115500 70 80 9.0 13.0 0.00 0.00 0.00 71 1014.0
20260508115359 70 71 12.0 13.0 0.00 0.00 0.00 70 1014.0
20260508115306 70 72 11.0 13.0 0.00 0.00 0.00 69 1014.0
20260508115200 70 68 11.0 13.0 0.00 0.00 0.00 70 1014.0
20260508115004 70 65 7.0 13.0 0.00 0.00 0.00 68 1014.0
20260508114859 70 32 12.0 13.0 0.00 0.00 0.00 70 1014.0
20260508114759 70 61 7.0 12.0 0.00 0.00 0.00 70 1014.0
20260508114703 70 86 8.0 12.0 0.00 0.00 0.00 71 1014.0
20260508114559 70 77 7.0 12.0 0.00 0.00 0.00 72 1014.0
20260508114411 70 64 8.0 13.0 0.00 0.00 0.00 71 1014.0
20260508114300 69 78 11.0 13.0 0.00 0.00 0.00 68 1014.0
20260508114159 69 28 6.0 13.0 0.00 0.00 0.00 67 1014.0
20260508114000 69 35 6.0 13.0 0.00 0.00 0.00 70 1014.1
20260508113900 69 49 5.0 13.0 0.00 0.00 0.00 67 1014.1
20260508113803 69 58 7.0 13.0 0.00 0.00 0.00 67 1014.0
20260508113659 69 35 8.0 13.0 0.00 0.00 0.00 67 1014.1
20260508113600 69 30 9.0 13.0 0.00 0.00 0.00 69 1014.0
20260508113503 69 56 9.0 12.0 0.00 0.00 0.00 70 1014.0
20260508113059 69 40 5.0 12.0 0.00 0.00 0.00 70 1014.0
20260508113001 69 27 5.0 12.0 0.00 0.00 0.00 69 1014.0
20260508112903 69 29 6.0 12.0 0.00 0.00 0.00 70 1014.0
20260508112800 69 63 8.0 12.0 0.00 0.00 0.00 69 1014.0
20260508112659 69 40 8.0 12.0 0.00 0.00 0.00 69 1014.1
20260508112602 69 42 6.0 12.0 0.00 0.00 0.00 70 1014.0
20260508112501 69 77 10.0 10.0 0.00 0.00 0.00 70 1014.1
20260508112400 69 44 6.0 10.0 0.00 0.00 0.00 72 1014.1
20260508112306 68 47 7.0 10.0 0.00 0.00 0.00 70 1014.1
20260508112200 69 59 9.0 10.0 0.00 0.00 0.00 71 1014.1
20260508112004 69 17 4.0 10.0 0.00 0.00 0.00 70 1014.1
20260508111901 69 32 7.0 11.0 0.00 0.00 0.00 70 1014.1
20260508111702 69 31 9.0 11.0 0.00 0.00 0.00 70 1014.1
20260508111600 69 50 5.0 11.0 0.00 0.00 0.00 71 1014.1
20260508111500 69 70 9.0 11.0 0.00 0.00 0.00 71 1014.1
20260508111403 69 47 5.0 11.0 0.00 0.00 0.00 72 1014.1
20260508111309 68 17 8.0 11.0 0.00 0.00 0.00 71 1014.1
20260508111102 68 41 7.0 11.0 0.00 0.00 0.00 71 1014.1
20260508111000 68 51 7.0 11.0 0.00 0.00 0.00 70 1014.1
20260508110902 68 13 5.0 10.0 0.00 0.00 0.00 69 1014.1
20260508110803 68 57 8.0 10.0 0.00 0.00 0.00 71 1014.2
20260508110703 68 47 9.0 10.0 0.00 0.00 0.00 71 1014.2
20260508110559 68 41 7.0 11.0 0.00 0.00 0.00 73 1014.2
20260508110503 68 25 4.0 11.0 0.00 0.00 0.00 72 1014.1
20260508110359 68 40 4.0 11.0 0.00 0.00 0.00 71 1014.2
20260508110300 68 32 7.0 11.0 0.00 0.00 0.00 70 1014.2
20260508110203 68 33 7.0 11.0 0.00 0.00 0.00 70 1014.1
20260508110005 68 33 5.0 11.0 0.00 0.00 0.00 71 1014.2
20260508105902 68 63 5.0 11.0 0.00 0.00 0.00 70 1014.2
20260508105802 68 48 6.0 11.0 0.00 0.00 0.00 71 1014.2
20260508105700 69 34 9.0 11.0 0.00 0.00 0.00 70 1014.2
20260508105604 69 28 10.0 11.0 0.00 0.00 0.00 71 1014.2
20260508105500 69 28 7.0 11.0 0.00 0.00 0.00 72 1014.2
20260508105305 68 69 4.0 11.0 0.00 0.00 0.00 72 1014.2
20260508105159 68 74 8.0 11.0 0.00 0.00 0.00 72 1014.3
20260508105100 68 70 7.0 11.0 0.00 0.00 0.00 73 1014.3
20260508105005 68 71 9.0 10.0 0.00 0.00 0.00 73 1014.3
20260508104859 68 69 9.0 10.0 0.00 0.00 0.00 72 1014.3
20260508104800 68 61 10.0 10.0 0.00 0.00 0.00 72 1014.3
20260508104702 68 30 6.0 10.0 0.00 0.00 0.00 74 1014.3
20260508104600 68 40 6.0 10.0 0.00 0.00 0.00 73 1014.3
20260508104500 68 42 4.0 10.0 0.00 0.00 0.00 73 1014.3
20260508104259 68 38 6.0 10.0 0.00 0.00 0.00 74 1014.3
20260508104159 68 42 5.0 10.0 0.00 0.00 0.00 75 1014.3
20260508104103 68 44 5.0 10.0 0.00 0.00 0.00 74 1014.3
20260508104001 68 82 3.0 10.0 0.00 0.00 0.00 74 1014.3
20260508103900 68 49 5.0 10.0 0.00 0.00 0.00 74 1014.3
20260508103805 68 61 9.0 10.0 0.00 0.00 0.00 75 1014.3
20260508103700 68 53 8.0 10.0 0.00 0.00 0.00 76 1014.3
20260508103601 68 58 10.0 10.0 0.00 0.00 0.00 75 1014.3
20260508103504 68 81 9.0 10.0 0.00 0.00 0.00 75 1014.3
20260508103400 68 79 9.0 10.0 0.00 0.00 0.00 74 1014.4
20260508103259 68 52 4.0 10.0 0.00 0.00 0.00 73 1014.3
20260508103202 68 47 6.0 10.0 0.00 0.00 0.00 74 1014.3
20260508103101 68 36 6.0 10.0 0.00 0.00 0.00 73 1014.4
20260508103000 68 32 7.0 9.0 0.00 0.00 0.00 75 1014.4
20260508102906 68 39 6.0 9.0 0.00 0.00 0.00 75 1014.4
20260508102800 68 42 3.0 9.0 0.00 0.00 0.00 74 1014.4
20260508102700 68 71 4.0 9.0 0.00 0.00 0.00 75 1014.4
20260508102602 68 76 7.0 9.0 0.00 0.00 0.00 74 1014.4
20260508102459 68 49 7.0 9.0 0.00 0.00 0.00 74 1014.4
20260508102306 68 35 3.0 9.0 0.00 0.00 0.00 72 1014.4
20260508102200 68 53 4.0 9.0 0.00 0.00 0.00 74 1014.4
20260508102003 68 15 4.0 9.0 0.00 0.00 0.00 74 1014.4
20260508101900 68 40 5.0 9.0 0.00 0.00 0.00 75 1014.4
20260508101800 68 38 5.0 9.0 0.00 0.00 0.00 75 1014.4
20260508101705 67 40 5.0 9.0 0.00 0.00 0.00 74 1014.4
20260508101600 67 44 9.0 9.0 0.00 0.00 0.00 75 1014.4
20260508101459 67 37 6.0 9.0 0.00 0.00 0.00 75 1014.4
20260508101402 67 24 2.0 9.0 0.00 0.00 0.00 74 1014.4
20260508101300 67 53 6.0 9.0 0.00 0.00 0.00 75 1014.4
20260508101102 67 34 6.0 9.0 0.00 0.00 0.00 74 1014.4
20260508101000 67 25 7.0 9.0 0.00 0.00 0.00 74 1014.4
20260508100901 67 60 2.0 9.0 0.00 0.00 0.00 74 1014.4
20260508100802 67 58 2.0 9.0 0.00 0.00 0.00 74 1014.4
20260508100659 67 58 1.0 9.0 0.00 0.00 0.00 73 1014.4
20260508100502 67 46 5.0 9.0 0.00 0.00 0.00 73 1014.4
20260508100400 68 33 5.0 9.0 0.00 0.00 0.00 73 1014.4
20260508100203 68 42 7.0 9.0 0.00 0.00 0.00 73 1014.4
20260508100118 68 54 3.0 7.0 0.00 0.00 0.00 74 1014.3
20260508100007 68 24 3.0 7.0 0.00 0.00 0.00 75 1014.3
20260508095900 68 38 7.0 7.0 0.00 0.00 0.00 76 1014.3
20260508095702 68 9 2.0 6.0 0.00 0.00 0.00 75 1014.4
20260508095600 67 316 3.0 6.0 0.00 0.00 0.00 75 1014.3
20260508095500 67 312 4.0 6.0 0.00 0.00 0.00 75 1014.4
20260508095402 67 323 3.0 6.0 0.00 0.00 0.00 74 1014.4
20260508095305 67 355 3.0 6.0 0.00 0.00 0.00 75 1014.4
20260508095002 67 13 1.0 6.0 0.00 0.00 0.00 75 1014.5
20260508094900 67 13 1.0 6.0 0.00 0.00 0.00 77 1014.4
20260508094803 67 13 3.0 7.0 0.00 0.00 0.00 76 1014.5
20260508094659 67 13 3.0 7.0 0.00 0.00 0.00 75 1014.4
20260508094601 67 13 1.0 7.0 0.00 0.00 0.00 75 1014.4
20260508094503 67 13 4.0 7.0 0.00 0.00 0.00 74 1014.4
20260508094400 67 31 4.0 7.0 0.00 0.00 0.00 75 1014.4
20260508094300 67 29 6.0 7.0 0.00 0.00 0.00 75 1014.4
20260508094204 67 28 4.0 7.0 0.00 0.00 0.00 75 1014.4
20260508094000 68 28 3.0 7.0 0.00 0.00 0.00 74 1014.4
20260508093902 68 32 5.0 7.0 0.00 0.00 0.00 75 1014.4
20260508093801 68 36 5.0 5.0 0.00 0.00 0.00 75 1014.4
20260508093602 68 63 3.0 6.0 0.00 0.00 0.00 76 1014.4
20260508093500 68 63 1.0 6.0 0.00 0.00 0.00 76 1014.4
20260508093359 68 63 3.0 6.0 0.00 0.00 0.00 76 1014.4
20260508093302 68 63 4.0 6.0 0.00 0.00 0.00 77 1014.4
20260508093159 68 30 4.0 6.0 0.00 0.00 0.00 78 1014.4
20260508093100 67 30 3.0 6.0 0.00 0.00 0.00 77 1014.4
20260508092859 67 30 2.0 7.0 0.00 0.00 0.00 78 1014.5
20260508092759 67 30 4.0 7.0 0.00 0.00 0.00 78 1014.4
20260508092703 67 30 3.0 7.0 0.00 0.00 0.00 78 1014.4
20260508092600 67 57 2.0 7.0 0.00 0.00 0.00 77 1014.5
20260508092459 67 57 2.0 7.0 0.00 0.00 0.00 78 1014.5
20260508092405 67 57 2.0 7.0 0.00 0.00 0.00 77 1014.5
20260508092159 67 57 1.0 7.0 0.00 0.00 0.00 76 1014.5
20260508092103 67 57 4.0 7.0 0.00 0.00 0.00 77 1014.5
20260508092000 67 46 3.0 7.0 0.00 0.00 0.00 77 1014.5
20260508091802 67 11 2.0 6.0 0.00 0.00 0.00 78 1014.5
20260508091603 67 339 4.0 6.0 0.00 0.00 0.00 78 1014.5
20260508091504 67 31 4.0 6.0 0.00 0.00 0.00 78 1014.5
20260508091400 67 18 2.0 6.0 0.00 0.00 0.00 78 1014.4
20260508091203 67 25 3.0 6.0 0.00 0.00 0.00 78 1014.5
20260508091059 67 31 3.0 4.0 0.00 0.00 0.00 78 1014.5
20260508091000 67 355 3.0 5.0 0.00 0.00 0.00 77 1014.5
20260508090903 67 355 2.0 5.0 0.00 0.00 0.00 77 1014.5
20260508090800 67 355 0.0 6.0 0.00 0.00 0.00 77 1014.5
20260508090700 67 355 0.0 6.0 0.00 0.00 0.00 77 1014.5
20260508090603 67 355 0.0 6.0 0.00 0.00 0.00 78 1014.5
20260508090359 67 355 1.0 6.0 0.00 0.00 0.00 78 1014.5
20260508090305 67 355 1.0 6.0 0.00 0.00 0.00 78 1014.5
20260508090201 67 355 2.0 6.0 0.00 0.00 0.00 79 1014.5
20260508090059 67 348 4.0 6.0 0.00 0.00 0.00 79 1014.4
20260508085759 67 40 4.0 6.0 0.00 0.00 0.00 78 1014.5
20260508085702 67 44 5.0 5.0 0.00 0.00 0.00 78 1014.5
20260508085459 67 66 4.0 5.0 0.00 0.00 0.00 78 1014.5
20260508085403 67 37 4.0 5.0 0.00 0.00 0.00 78 1014.5
20260508085205 67 26 3.0 5.0 0.00 0.00 0.00 79 1014.6
20260508085103 67 27 4.0 5.0 0.00 0.00 0.00 80 1014.5
20260508085000 67 27 2.0 5.0 0.00 0.00 0.00 81 1014.6
20260508084859 66 27 4.0 5.0 0.00 0.00 0.00 82 1014.6
20260508084804 66 27 0.0 6.0 0.00 0.00 0.00 81 1014.6
20260508084606 66 20 2.0 7.0 0.00 0.00 0.00 81 1014.5
20260508084504 66 44 4.0 7.0 0.00 0.00 0.00 81 1014.5
20260508084359 66 25 2.0 7.0 0.00 0.00 0.00 82 1014.6
20260508084203 66 25 2.0 7.0 0.00 0.00 0.00 81 1014.6
20260508084005 66 31 0.0 7.0 0.00 0.00 0.00 81 1014.6
20260508083903 66 53 4.0 7.0 0.00 0.00 0.00 82 1014.6
20260508083803 66 39 5.0 7.0 0.00 0.00 0.00 82 1014.6
20260508083601 65 50 2.0 4.0 0.00 0.00 0.00 83 1014.6
20260508083503 65 50 3.0 4.0 0.00 0.00 0.00 83 1014.6
20260508083402 65 50 3.0 4.0 0.00 0.00 0.00 83 1014.6
20260508083005 65 50 0.0 4.0 0.00 0.00 0.00 85 1014.6
20260508082902 65 50 0.0 4.0 0.00 0.00 0.00 85 1014.6
20260508082800 64 50 2.0 4.0 0.00 0.00 0.00 85 1014.6
20260508082602 64 44 2.0 3.0 0.00 0.00 0.00 85 1014.6
20260508082459 64 270 1.0 3.0 0.00 0.00 0.00 85 1014.5
20260508082404 64 270 1.0 3.0 0.00 0.00 0.00 84 1014.5
20260508082306 64 270 2.0 3.0 0.00 0.00 0.00 84 1014.5
20260508082200 64 270 1.0 4.0 0.00 0.00 0.00 84 1014.6
20260508081901 64 329 0.0 4.0 0.00 0.00 0.00 84 1014.6
20260508081804 64 329 2.0 4.0 0.00 0.00 0.00 83 1014.6
20260508081703 64 329 1.0 4.0 0.00 0.00 0.00 83 1014.5
20260508081600 64 329 0.0 4.0 0.00 0.00 0.00 84 1014.6
20260508081505 64 329 3.0 4.0 0.00 0.00 0.00 84 1014.6
20260508081402 64 329 2.0 4.0 0.00 0.00 0.00 84 1014.5
20260508081203 64 329 1.0 4.0 0.00 0.00 0.00 84 1014.5
20260508081101 64 329 3.0 4.0 0.00 0.00 0.00 84 1014.6
20260508081002 64 329 3.0 4.0 0.00 0.00 0.00 84 1014.5
20260508080903 64 329 1.0 4.0 0.00 0.00 0.00 84 1014.5
20260508080802 64 329 0.0 4.0 0.00 0.00 0.00 85 1014.6
20260508080700 64 329 0.0 4.0 0.00 0.00 0.00 86 1014.6
20260508080603 64 329 2.0 4.0 0.00 0.00 0.00 86 1014.5
20260508080503 64 329 2.0 4.0 0.00 0.00 0.00 86 1014.5
20260508080406 64 329 3.0 4.0 0.00 0.00 0.00 86 1014.5
20260508080305 63 329 3.0 4.0 0.00 0.00 0.00 85 1014.6
20260508080204 63 329 2.0 4.0 0.00 0.00 0.00 84 1014.5
20260508080139 63 329 4.0 6.0 0.00 0.00 0.00 84 1014.5
20260508080010 63 265 0.0 6.0 0.00 0.00 0.00 84 1014.5
20260508075903 63 265 1.0 6.0 0.00 0.00 0.00 84 1014.5
20260508075800 63 265 1.0 6.0 0.00 0.00 0.00 84 1014.5
20260508075703 63 323 1.0 6.0 0.00 0.00 0.00 84 1014.5
20260508075602 64 329 0.0 6.0 0.00 0.00 0.00 85 1014.5
20260508075501 64 329 1.0 6.0 0.00 0.00 0.00 85 1014.5
20260508075200 63 321 4.0 6.0 0.00 0.00 0.00 86 1014.5
20260508075102 63 309 4.0 6.0 0.00 0.00 0.00 86 1014.5
20260508075005 63 5 4.0 6.0 0.00 0.00 0.00 86 1014.5
20260508074900 63 286 3.0 6.0 0.00 0.00 0.00 87 1014.5
20260508074803 63 338 2.0 6.0 0.00 0.00 0.00 87 1014.5
20260508074703 63 318 2.0 6.0 0.00 0.00 0.00 87 1014.5
20260508074600 63 318 4.0 6.0 0.00 0.00 0.00 88 1014.5
20260508074503 62 309 4.0 5.0 0.00 0.00 0.00 87 1014.5
20260508074402 62 271 2.0 6.0 0.00 0.00 0.00 87 1014.5
20260508074300 62 271 3.0 6.0 0.00 0.00 0.00 87 1014.5
20260508074203 62 268 4.0 6.0 0.00 0.00 0.00 87 1014.5
20260508074102 62 249 4.0 6.0 0.00 0.00 0.00 87 1014.5
20260508074002 62 266 2.0 6.0 0.00 0.00 0.00 87 1014.5
20260508073906 61 280 3.0 6.0 0.00 0.00 0.00 88 1014.5
20260508073802 61 275 4.0 6.0 0.00 0.00 0.00 88 1014.4
20260508073700 61 317 5.0 6.0 0.00 0.00 0.00 87 1014.4
20260508073604 61 274 2.0 6.0 0.00 0.00 0.00 87 1014.5
20260508073503 61 286 4.0 6.0 0.00 0.00 0.00 87 1014.5
20260508073400 61 284 6.0 6.0 0.00 0.00 0.00 87 1014.4
20260508073302 61 279 4.0 6.0 0.00 0.00 0.00 87 1014.4
20260508073202 61 270 3.0 6.0 0.00 0.00 0.00 88 1014.4
20260508073107 61 308 3.0 6.0 0.00 0.00 0.00 87 1014.4
20260508073004 61 275 4.0 6.0 0.00 0.00 0.00 88 1014.4
20260508072902 61 278 5.0 6.0 0.00 0.00 0.00 88 1014.4
20260508072800 60 296 6.0 6.0 0.00 0.00 0.00 87 1014.4
20260508072701 60 269 3.0 7.0 0.00 0.00 0.00 87 1014.3
20260508072603 60 256 5.0 7.0 0.00 0.00 0.00 88 1014.3
20260508072459 60 271 4.0 7.0 0.00 0.00 0.00 88 1014.3
20260508072307 60 258 4.0 7.0 0.00 0.00 0.00 88 1014.3
20260508072200 60 292 2.0 7.0 0.00 0.00 0.00 88 1014.3
20260508072103 60 292 2.0 7.0 0.00 0.00 0.00 88 1014.4
20260508072008 60 276 4.0 7.0 0.00 0.00 0.00 88 1014.4
20260508071902 60 294 4.0 7.0 0.00 0.00 0.00 87 1014.3
20260508071802 60 270 3.0 7.0 0.00 0.00 0.00 88 1014.3
20260508071702 60 265 4.0 6.0 0.00 0.00 0.00 88 1014.3
20260508071600 60 272 6.0 6.0 0.00 0.00 0.00 88 1014.3
20260508071502 60 261 3.0 6.0 0.00 0.00 0.00 88 1014.4
20260508071402 59 267 5.0 6.0 0.00 0.00 0.00 88 1014.4
20260508071300 59 259 3.0 6.0 0.00 0.00 0.00 88 1014.4
20260508071100 59 314 2.0 6.0 0.00 0.00 0.00 88 1014.4
20260508071010 59 303 4.0 6.0 0.00 0.00 0.00 88 1014.4
20260508070904 59 302 4.0 6.0 0.00 0.00 0.00 88 1014.3
20260508070759 59 262 4.0 6.0 0.00 0.00 0.00 88 1014.3
20260508070705 59 266 4.0 6.0 0.00 0.00 0.00 88 1014.3
20260508070602 59 245 4.0 6.0 0.00 0.00 0.00 88 1014.3
20260508070501 59 254 3.0 6.0 0.00 0.00 0.00 88 1014.4
20260508070200 59 280 3.0 5.0 0.00 0.00 0.00 89 1014.3
20260508070005 59 280 2.0 5.0 0.00 0.00 0.00 88 1014.3
20260508065900 59 280 2.0 5.0 0.00 0.00 0.00 89 1014.3
20260508065802 59 280 3.0 5.0 0.00 0.00 0.00 89 1014.3
20260508065703 59 280 0.0 5.0 0.00 0.00 0.00 89 1014.3
20260508065559 58 280 2.0 5.0 0.00 0.00 0.00 90 1014.3
20260508065402 58 275 5.0 5.0 0.00 0.00 0.00 89 1014.3
20260508065300 58 286 5.0 5.0 0.00 0.00 0.00 89 1014.3
20260508065202 58 284 4.0 4.0 0.00 0.00 0.00 89 1014.3
20260508065103 58 279 2.0 4.0 0.00 0.00 0.00 89 1014.3
20260508065001 58 279 2.0 4.0 0.00 0.00 0.00 89 1014.3
20260508064903 58 279 3.0 4.0 0.00 0.00 0.00 89 1014.3
20260508064802 58 279 2.0 5.0 0.00 0.00 0.00 89 1014.2
20260508064700 58 279 1.0 5.0 0.00 0.00 0.00 89 1014.3
20260508064602 58 279 2.0 5.0 0.00 0.00 0.00 89 1014.2
20260508064400 57 279 1.0 5.0 0.00 0.00 0.00 89 1014.2
20260508064301 57 279 2.0 5.0 0.00 0.00 0.00 89 1014.2
20260508064203 57 279 1.0 5.0 0.00 0.00 0.00 89 1014.2
20260508064100 57 279 1.0 5.0 0.00 0.00 0.00 90 1014.2
20260508064003 57 279 3.0 5.0 0.00 0.00 0.00 90 1014.1
20260508063800 57 286 4.0 5.0 0.00 0.00 0.00 90 1014.1
20260508063704 57 309 2.0 5.0 0.00 0.00 0.00 90 1014.2
20260508063603 57 309 3.0 5.0 0.00 0.00 0.00 90 1014.2
20260508063401 57 309 1.0 5.0 0.00 0.00 0.00 90 1014.1
20260508063304 57 309 2.0 5.0 0.00 0.00 0.00 90 1014.1
20260508063201 57 296 3.0 5.0 0.00 0.00 0.00 90 1014.2
20260508063103 57 293 3.0 5.0 0.00 0.00 0.00 90 1014.2
20260508063008 57 290 3.0 5.0 0.00 0.00 0.00 90 1014.2
20260508062900 57 287 2.0 5.0 0.00 0.00 0.00 90 1014.1
20260508062802 57 257 2.0 5.0 0.00 0.00 0.00 90 1014.2
20260508062703 57 287 4.0 5.0 0.00 0.00 0.00 90 1014.2
20260508062600 57 279 4.0 6.0 0.00 0.00 0.00 90 1014.1
20260508062502 57 271 2.0 6.0 0.00 0.00 0.00 90 1014.1
20260508062403 57 261 4.0 6.0 0.00 0.00 0.00 90 1014.1
20260508062300 57 261 2.0 6.0 0.00 0.00 0.00 90 1014.1
20260508062202 57 261 1.0 6.0 0.00 0.00 0.00 90 1014.0
20260508062103 57 261 3.0 6.0 0.00 0.00 0.00 90 1014.0
20260508062001 57 281 2.0 6.0 0.00 0.00 0.00 90 1014.0
20260508061902 57 269 3.0 6.0 0.00 0.00 0.00 90 1014.0
20260508061804 57 269 3.0 6.0 0.00 0.00 0.00 91 1014.0
20260508061701 57 276 4.0 6.0 0.00 0.00 0.00 91 1014.0
20260508061600 57 278 3.0 6.0 0.00 0.00 0.00 91 1014.0
20260508061300 57 281 3.0 5.0 0.00 0.00 0.00 92 1013.9
20260508061100 57 301 2.0 5.0 0.00 0.00 0.00 92 1013.8
20260508061000 57 306 4.0 5.0 0.00 0.00 0.00 92 1013.9
20260508060800 57 325 3.0 5.0 0.00 0.00 0.00 93 1013.8
20260508060702 57 315 5.0 5.0 0.00 0.00 0.00 93 1013.8
20260508060603 57 277 2.0 3.0 0.00 0.00 0.00 93 1013.8
20260508060500 57 277 2.0 3.0 0.00 0.00 0.00 93 1013.8
20260508060400 57 277 2.0 3.0 0.00 0.00 0.00 93 1013.8
20260508060303 57 277 2.0 3.0 0.00 0.00 0.00 93 1013.8
20260508060201 56 277 3.0 3.0 0.00 0.00 0.00 93 1013.8
20260508060114 56 277 2.0 2.0 0.00 0.00 0.00 93 1013.8
20260508060006 56 277 1.0 2.0 0.00 0.00 0.00 94 1013.8
20260508055859 56 277 0.0 4.0 0.00 0.00 0.00 94 1013.7
20260508055800 56 277 0.0 4.0 0.00 0.00 0.00 94 1013.7
20260508055703 56 277 2.0 4.0 0.00 0.00 0.00 94 1013.7
20260508055403 56 277 1.0 4.0 0.00 0.00 0.00 94 1013.7
20260508055301 56 277 2.0 4.0 0.00 0.00 0.00 94 1013.6
20260508055200 56 277 2.0 4.0 0.00 0.00 0.00 94 1013.7
20260508055102 56 277 1.0 4.0 0.00 0.00 0.00 94 1013.6
20260508055001 56 277 2.0 4.0 0.00 0.00 0.00 94 1013.6
20260508054859 56 277 3.0 4.0 0.00 0.00 0.00 95 1013.6
20260508054701 56 325 3.0 4.0 0.00 0.00 0.00 95 1013.6
20260508054505 56 325 1.0 4.0 0.00 0.00 0.00 95 1013.5
20260508054259 55 329 2.0 4.0 0.00 0.00 0.00 95 1013.6
20260508054204 55 221 3.0 4.0 0.00 0.00 0.00 95 1013.6
20260508054100 55 221 2.0 4.0 0.00 0.00 0.00 95 1013.6
20260508054010 55 221 2.0 4.0 0.00 0.00 0.00 95 1013.6
20260508053902 55 221 1.0 4.0 0.00 0.00 0.00 95 1013.6
20260508053802 55 221 2.0 4.0 0.00 0.00 0.00 95 1013.6
20260508053700 55 221 2.0 4.0 0.00 0.00 0.00 95 1013.6
20260508053602 55 221 2.0 4.0 0.00 0.00 0.00 95 1013.6
20260508053502 55 221 4.0 4.0 0.00 0.00 0.00 95 1013.6
20260508053402 55 221 0.0 2.0 0.00 0.00 0.00 95 1013.6
20260508053305 55 221 0.0 2.0 0.00 0.00 0.00 95 1013.6
20260508053201 55 221 1.0 2.0 0.00 0.00 0.00 95 1013.6
20260508053005 55 220 0.0 4.0 0.00 0.00 0.00 96 1013.6
20260508052900 55 220 0.0 4.0 0.00 0.00 0.00 96 1013.6
20260508052802 55 220 1.0 4.0 0.00 0.00 0.00 96 1013.6
20260508052706 55 220 1.0 4.0 0.00 0.00 0.00 96 1013.6
20260508052602 54 220 0.0 4.0 0.00 0.00 0.00 96 1013.6
20260508052503 54 220 0.0 4.0 0.00 0.00 0.00 96 1013.5
20260508052403 54 220 1.0 4.0 0.00 0.00 0.00 96 1013.6
20260508052300 54 220 1.0 4.0 0.00 0.00 0.00 96 1013.5
20260508052200 54 220 1.0 5.0 0.00 0.00 0.00 96 1013.5
20260508052104 54 220 4.0 5.0 0.00 0.00 0.00 96 1013.5
20260508052001 54 220 2.0 6.0 0.00 0.00 0.00 96 1013.5
20260508051902 54 220 3.0 6.0 0.00 0.00 0.00 96 1013.4
20260508051803 54 231 3.0 6.0 0.00 0.00 0.00 96 1013.5
20260508051700 54 237 2.0 6.0 0.00 0.00 0.00 96 1013.5
20260508051601 54 221 2.0 6.0 0.00 0.00 0.00 96 1013.4
20260508051507 54 221 2.0 6.0 0.00 0.00 0.00 96 1013.4
20260508051400 54 254 1.0 6.0 0.00 0.00 0.00 100 1013.4
20260508051258 54 232 4.0 6.0 0.00 0.00 0.00 96 1013.3
20260508051203 54 261 5.0 6.0 0.00 0.00 0.00 96 1013.3
20260508051100 54 240 4.0 6.0 0.00 0.00 0.00 96 1013.3
20260508051001 54 236 6.0 6.0 0.00 0.00 0.00 96 1013.4
20260508050903 54 232 5.0 5.0 0.00 0.00 0.00 96 1013.4
20260508050700 53 250 5.0 5.0 0.00 0.00 0.00 96 1013.4
20260508050603 53 250 3.0 3.0 0.00 0.00 0.00 96 1013.5
20260508050501 53 239 3.0 3.0 0.00 0.00 0.00 96 1013.4
20260508050400 53 290 1.0 3.0 0.00 0.00 0.00 96 1013.5
20260508050301 53 290 2.0 3.0 0.00 0.00 0.00 96 1013.4
20260508050222 53 290 2.0 3.0 0.00 0.00 0.00 96 1013.4
20260508050100 53 311 3.0 3.0 0.00 0.00 0.00 96 1013.4
20260508050006 53 311 2.0 3.0 0.00 0.00 0.00 96 1013.4
20260508045702 53 311 1.0 3.0 0.00 0.00 0.00 96 1013.4
20260508045600 53 311 0.0 3.0 0.00 0.00 0.00 96 1013.4
20260508045501 53 311 1.0 3.0 0.00 0.00 0.00 96 1013.4
20260508045406 53 311 2.0 3.0 0.00 0.00 0.00 96 1013.4
20260508045200 53 311 1.0 3.0 0.00 0.00 0.00 96 1013.4
20260508045103 53 311 0.0 3.0 0.00 0.00 0.00 96 1013.4
20260508045000 53 311 3.0 3.0 0.00 0.00 0.00 96 1013.3
20260508044900 53 311 3.0 3.0 0.00 0.00 0.00 96 1013.3
20260508044803 53 311 1.0 3.0 0.00 0.00 0.00 96 1013.3
20260508044701 53 311 0.0 4.0 0.00 0.00 0.00 96 1013.3
20260508044601 53 311 2.0 4.0 0.00 0.00 0.00 96 1013.3
20260508044400 52 320 2.0 4.0 0.00 0.00 0.00 96 1013.2
20260508044001 52 26 2.0 5.0 0.00 0.00 0.00 96 1013.3
20260508043906 52 26 1.0 6.0 0.00 0.00 0.00 96 1013.3
20260508043817 52 26 3.0 6.0 0.00 0.00 0.00 96 1013.3
20260508043700 52 26 3.0 6.0 0.00 0.00 0.00 96 1013.3
20260508043606 52 26 3.0 6.0 0.00 0.00 0.00 96 1013.3
20260508043505 52 26 2.0 6.0 0.00 0.00 0.00 96 1013.3
20260508043303 52 26 3.0 6.0 0.00 0.00 0.00 96 1013.2
20260508043203 52 26 2.0 6.0 0.00 0.00 0.00 96 1013.2
20260508043100 52 22 3.0 6.0 0.00 0.00 0.00 96 1013.2
20260508043005 52 29 3.0 6.0 0.00 0.00 0.00 96 1013.2
20260508042902 52 31 5.0 5.0 0.00 0.00 0.00 96 1013.2
20260508042814 52 229 2.0 3.0 0.00 0.00 0.00 96 1013.2
20260508042705 52 229 1.0 2.0 0.00 0.00 0.00 96 1013.1
20260508042601 52 229 0.0 2.0 0.00 0.00 0.00 96 1013.1
20260508042500 52 229 1.0 2.0 0.00 0.00 0.00 96 1013.1
20260508042402 52 229 0.0 2.0 0.00 0.00 0.00 96 1013.2
20260508042306 52 229 0.0 2.0 0.00 0.00 0.00 96 1013.1
20260508042200 52 229 0.0 2.0 0.00 0.00 0.00 96 1013.1
20260508042104 52 229 0.0 2.0 0.00 0.00 0.00 96 1013.1
20260508041900 52 229 1.0 3.0 0.00 0.00 0.00 96 1013.1
20260508041802 52 229 1.0 3.0 0.00 0.00 0.00 96 1013.1
20260508041702 52 229 0.0 5.0 0.00 0.00 0.00 96 1013.1
20260508041600 52 229 1.0 5.0 0.00 0.00 0.00 96 1013.1
20260508041502 52 229 0.0 6.0 0.00 0.00 0.00 96 1013.1
20260508041402 52 229 1.0 6.0 0.00 0.00 0.00 96 1013.1
20260508041300 52 229 1.0 7.0 0.00 0.00 0.00 96 1013.1
20260508041204 52 229 0.0 7.0 0.00 0.00 0.00 96 1013.1
20260508041103 52 229 0.0 7.0 0.00 0.00 0.00 96 1013.1
20260508041001 52 229 3.0 7.0 0.00 0.00 0.00 96 1013.1
20260508040904 52 229 2.0 7.0 0.00 0.00 0.00 96 1013.1
20260508040802 52 229 2.0 7.0 0.00 0.00 0.00 96 1013.0
20260508040716 51 229 5.0 7.0 0.00 0.00 0.00 96 1013.0
20260508040503 51 225 5.0 7.0 0.00 0.00 0.00 96 1013.0
20260508040204 51 228 4.0 5.0 0.00 0.00 0.00 96 1013.0
20260508040113 51 232 2.0 5.0 0.00 0.00 0.00 96 1013.0
20260508040008 51 232 3.0 5.0 0.00 0.00 0.00 96 1013.0
20260508035800 51 232 2.0 5.0 0.00 0.00 0.00 96 1013.0
20260508035603 51 232 2.0 6.0 0.00 0.00 0.00 96 1013.0
20260508035503 51 232 2.0 6.0 0.00 0.00 0.00 96 1013.0
20260508035403 51 232 3.0 6.0 0.00 0.00 0.00 96 1012.9
20260508035306 51 232 2.0 6.0 0.00 0.00 0.00 96 1012.9
20260508035207 50 232 2.0 6.0 0.00 0.00 0.00 96 1013.0
20260508035002 50 232 2.0 6.0 0.00 0.00 0.00 96 1012.9
20260508034900 50 232 2.0 6.0 0.00 0.00 0.00 96 1012.9
20260508034802 50 237 5.0 6.0 0.00 0.00 0.00 96 1012.9
20260508034702 50 230 4.0 6.0 0.00 0.00 0.00 96 1012.9
20260508034502 50 224 5.0 7.0 0.00 0.00 0.00 96 1013.0
20260508034402 50 213 3.0 7.0 0.00 0.00 0.00 96 1013.0
20260508034259 50 201 3.0 7.0 0.00 0.00 0.00 96 1013.0
20260508034204 50 201 3.0 7.0 0.00 0.00 0.00 96 1013.0
20260508034001 50 201 5.0 7.0 0.00 0.00 0.00 96 1012.9
20260508033603 49 212 4.0 7.0 0.00 0.00 0.00 96 1012.8
20260508033459 49 217 6.0 7.0 0.00 0.00 0.00 96 1012.8
20260508033200 49 213 3.0 6.0 0.00 0.00 0.00 96 1012.9
20260508033102 49 213 5.0 6.0 0.00 0.00 0.00 96 1012.8
20260508033005 49 213 4.0 5.0 0.00 0.00 0.00 96 1012.8
20260508032901 49 213 3.0 5.0 0.00 0.00 0.00 96 1012.9
20260508032802 49 213 4.0 5.0 0.00 0.00 0.00 96 1013.0
20260508032702 49 213 4.0 5.0 0.00 0.00 0.00 96 1012.9
20260508032558 49 213 4.0 5.0 0.00 0.00 0.00 96 1013.0
20260508032402 49 213 3.0 4.0 0.00 0.00 0.00 96 1012.8
20260508032259 49 213 3.0 5.0 0.00 0.00 0.00 96 1012.8
20260508032204 49 232 2.0 5.0 0.00 0.00 0.00 96 1012.8
20260508032103 49 232 3.0 5.0 0.00 0.00 0.00 96 1012.8
20260508032002 49 279 2.0 5.0 0.00 0.00 0.00 96 1012.8
20260508031900 49 279 2.0 5.0 0.00 0.00 0.00 96 1012.9
20260508031804 49 279 2.0 5.0 0.00 0.00 0.00 96 1012.9
20260508031600 49 279 2.0 5.0 0.00 0.00 0.00 96 1013.0
20260508031400 48 279 3.0 5.0 0.00 0.00 0.00 96 1013.0
20260508031300 48 281 4.0 4.0 0.00 0.00 0.00 96 1013.0
20260508031000 48 290 3.0 4.0 0.00 0.00 0.00 96 1012.9
20260508030903 48 283 3.0 4.0 0.00 0.00 0.00 96 1013.0
20260508030804 48 284 3.0 4.0 0.00 0.00 0.00 96 1012.9
20260508030500 47 290 1.0 2.0 0.00 0.00 0.00 95 1013.0
20260508030400 47 290 2.0 2.0 0.00 0.00 0.00 95 1013.0
20260508030059 48 290 1.0 3.0 0.00 0.00 0.00 95 1013.0
20260508030006 48 290 0.0 3.0 0.00 0.00 0.00 95 1013.0
20260508025800 48 290 0.0 3.0 0.00 0.00 0.00 96 1013.0
20260508025619 48 290 0.0 3.0 0.00 0.00 0.00 96 1013.0
20260508025500 48 290 1.0 3.0 0.00 0.00 0.00 96 1012.9
20260508025403 48 290 1.0 3.0 0.00 0.00 0.00 96 1012.9
20260508025300 48 290 2.0 3.0 0.00 0.00 0.00 96 1012.9
20260508025159 47 296 3.0 3.0 0.00 0.00 0.00 96 1012.9
20260508025102 47 190 2.0 3.0 0.00 0.00 0.00 96 1012.9
20260508025001 47 190 2.0 2.0 0.00 0.00 0.00 96 1012.9
20260508024701 47 190 1.0 2.0 0.00 0.00 0.00 95 1013.0
20260508024600 47 190 0.0 2.0 0.00 0.00 0.00 96 1013.0
20260508024510 47 190 0.0 2.0 0.00 0.00 0.00 96 1013.0
20260508024301 47 190 1.0 2.0 0.00 0.00 0.00 95 1013.0
20260508024203 47 190 2.0 2.0 0.00 0.00 0.00 95 1012.9
20260508024103 47 190 2.0 2.0 0.00 0.00 0.00 95 1012.9
20260508024004 47 190 1.0 2.0 0.00 0.00 0.00 95 1012.9
20260508023903 47 190 2.0 2.0 0.00 0.00 0.00 95 1012.9
20260508023758 47 190 1.0 2.0 0.00 0.00 0.00 95 1012.8
20260508023700 47 190 1.0 2.0 0.00 0.00 0.00 95 1012.8
20260508023500 47 190 0.0 3.0 0.00 0.00 0.00 95 1012.8
20260508023302 47 190 2.0 4.0 0.00 0.00 0.00 95 1012.8
20260508023202 47 190 2.0 4.0 0.00 0.00 0.00 95 1012.9
20260508023100 47 190 1.0 4.0 0.00 0.00 0.00 95 1012.9
20260508023007 47 190 0.0 4.0 0.00 0.00 0.00 95 1012.9
20260508022900 47 190 0.0 4.0 0.00 0.00 0.00 95 1012.9
20260508022758 47 190 0.0 4.0 0.00 0.00 0.00 95 1012.8
20260508022704 47 190 0.0 4.0 0.00 0.00 0.00 95 1012.8
20260508022600 47 190 2.0 4.0 0.00 0.00 0.00 95 1012.8
20260508022500 47 190 2.0 4.0 0.00 0.00 0.00 95 1012.8
20260508022404 47 190 3.0 4.0 0.00 0.00 0.00 95 1012.8
20260508022300 47 190 2.0 4.0 0.00 0.00 0.00 95 1012.7
20260508022200 47 190 4.0 4.0 0.00 0.00 0.00 95 1012.7
20260508022102 47 190 4.0 4.0 0.00 0.00 0.00 95 1012.7
20260508022001 47 190 4.0 4.0 0.00 0.00 0.00 95 1012.7
20260508021900 47 190 3.0 3.0 0.00 0.00 0.00 95 1012.7
20260508021806 47 190 1.0 2.0 0.00 0.00 0.00 95 1012.7
20260508021700 47 190 1.0 2.0 0.00 0.00 0.00 95 1012.7
20260508021601 48 190 2.0 2.0 0.00 0.00 0.00 95 1012.7
20260508021503 48 190 2.0 2.0 0.00 0.00 0.00 95 1012.7
20260508021359 48 190 0.0 2.0 0.00 0.00 0.00 95 1012.7
20260508021300 48 190 0.0 2.0 0.00 0.00 0.00 95 1012.7
20260508021204 48 190 0.0 3.0 0.00 0.00 0.00 95 1012.7
20260508021100 48 190 0.0 3.0 0.00 0.00 0.00 95 1012.7
20260508021000 48 190 0.0 3.0 0.00 0.00 0.00 95 1012.6
20260508020903 48 190 0.0 3.0 0.00 0.00 0.00 95 1012.7
20260508020759 48 190 0.0 3.0 0.00 0.00 0.00 95 1012.6
20260508020501 48 190 0.0 3.0 0.00 0.00 0.00 95 1012.7
20260508020400 48 190 1.0 3.0 0.00 0.00 0.00 95 1012.7
20260508020302 48 190 2.0 3.0 0.00 0.00 0.00 95 1012.7
20260508020159 48 190 2.0 2.0 0.00 0.00 0.00 95 1012.7
20260508020114 48 190 1.0 2.0 0.00 0.00 0.00 95 1012.7
20260508020005 48 190 1.0 2.0 0.00 0.00 0.00 95 1012.7
20260508015702 48 190 0.0 3.0 0.00 0.00 0.00 95 1012.6
20260508015600 48 190 0.0 3.0 0.00 0.00 0.00 95 1012.6
20260508015500 48 190 0.0 3.0 0.00 0.00 0.00 95 1012.6
20260508015259 48 190 0.0 3.0 0.00 0.00 0.00 95 1012.7
20260508015159 48 190 1.0 3.0 0.00 0.00 0.00 95 1012.7
20260508015103 48 190 1.0 3.0 0.00 0.00 0.00 95 1012.7
20260508015000 48 190 2.0 3.0 0.00 0.00 0.00 96 1012.7
20260508014900 48 190 2.0 3.0 0.00 0.00 0.00 96 1012.7
20260508014659 48 190 2.0 3.0 0.00 0.00 0.00 95 1012.7
20260508014602 48 190 2.0 3.0 0.00 0.00 0.00 95 1012.7
20260508014508 48 190 2.0 3.0 0.00 0.00 0.00 95 1012.7
20260508014418 48 190 3.0 3.0 0.00 0.00 0.00 95 1012.7
20260508014100 48 190 2.0 3.0 0.00 0.00 0.00 95 1012.6
20260508014001 48 190 1.0 3.0 0.00 0.00 0.00 95 1012.6
20260508013902 48 190 1.0 3.0 0.00 0.00 0.00 95 1012.6
20260508013801 48 190 2.0 3.0 0.00 0.00 0.00 95 1012.6
20260508013701 48 190 1.0 3.0 0.00 0.00 0.00 95 1012.6
20260508013605 48 190 1.0 3.0 0.00 0.00 0.00 95 1012.6
20260508013400 48 190 2.0 3.0 0.00 0.00 0.00 95 1012.6
20260508013303 48 190 2.0 3.0 0.00 0.00 0.00 95 1012.6
20260508013159 48 190 1.0 3.0 0.00 0.00 0.00 95 1012.6
20260508013059 48 190 2.0 2.0 0.00 0.00 0.00 95 1012.6
20260508012901 48 190 0.0 2.0 0.00 0.00 0.00 95 1012.6
20260508012800 48 190 1.0 2.0 0.00 0.00 0.00 95 1012.6
20260508012702 48 190 1.0 2.0 0.00 0.00 0.00 95 1012.6
20260508012600 48 190 1.0 1.0 0.00 0.00 0.00 95 1012.7
20260508012500 48 190 0.0 0.0 0.00 0.00 0.00 95 1012.7
20260508012401 48 190 0.0 0.0 0.00 0.00 0.00 95 1012.7
20260508012103 48 190 0.0 1.0 0.00 0.00 0.00 95 1012.7
20260508012000 48 190 0.0 2.0 0.00 0.00 0.00 95 1012.7
20260508011803 48 190 0.0 2.0 0.00 0.00 0.00 95 1012.7
20260508011700 48 190 0.0 2.0 0.00 0.00 0.00 95 1012.6
20260508011600 48 190 0.0 2.0 0.00 0.00 0.00 95 1012.6
20260508011503 48 190 0.0 2.0 0.00 0.00 0.00 95 1012.6
20260508011407 48 190 0.0 2.0 0.00 0.00 0.00 95 1012.6
20260508011300 48 190 0.0 2.0 0.00 0.00 0.00 95 1012.6
20260508011203 48 190 0.0 2.0 0.00 0.00 0.00 95 1012.6
20260508011000 48 190 2.0 2.0 0.00 0.00 0.00 95 1012.6
20260508010903 48 190 1.0 2.0 0.00 0.00 0.00 95 1012.6
20260508010759 48 190 0.0 2.0 0.00 0.00 0.00 95 1012.5
20260508010700 48 190 1.0 2.0 0.00 0.00 0.00 95 1012.6
20260508010500 48 190 1.0 2.0 0.00 0.00 0.00 95 1012.6
20260508010400 48 190 1.0 2.0 0.00 0.00 0.00 95 1012.6
20260508010201 48 190 1.0 2.0 0.00 0.00 0.00 95 1012.7
20260508010059 48 190 1.0 1.0 0.00 0.00 0.00 95 1012.6
20260508010005 48 190 1.0 1.0 0.00 0.00 0.00 95 1012.7
20260508005900 48 190 1.0 1.0 0.00 0.00 0.00 95 1012.7
20260508005758 48 190 1.0 1.0 0.00 0.00 0.00 95 1012.7
20260508005559 48 190 0.0 1.0 0.00 0.00 0.00 95 1012.7
20260508005500 48 190 0.0 2.0 0.00 0.00 0.00 95 1012.7
20260508005402 48 190 0.0 2.0 0.00 0.00 0.00 94 1012.7
20260508005300 48 190 0.0 2.0 0.00 0.00 0.00 95 1012.7
20260508005159 48 190 0.0 2.0 0.00 0.00 0.00 95 1012.7
20260508005102 48 190 0.0 2.0 0.00 0.00 0.00 95 1012.7
20260508005000 48 190 0.0 2.0 0.00 0.00 0.00 95 1012.7
20260508004802 48 190 1.0 2.0 0.00 0.00 0.00 95 1012.7
20260508004700 48 190 1.0 2.0 0.00 0.00 0.00 94 1012.6
20260508004600 48 190 1.0 2.0 0.00 0.00 0.00 95 1012.7
20260508004504 48 190 2.0 2.0 0.00 0.00 0.00 94 1012.7
20260508004359 48 190 2.0 3.0 0.00 0.00 0.00 94 1012.7
20260508004259 48 190 2.0 3.0 0.00 0.00 0.00 94 1012.7
20260508004203 48 190 1.0 3.0 0.00 0.00 0.00 94 1012.7
20260508004000 48 190 0.0 3.0 0.00 0.00 0.00 94 1012.8
20260508003901 48 190 1.0 3.0 0.00 0.00 0.00 94 1012.8
20260508003800 48 190 1.0 3.0 0.00 0.00 0.00 94 1012.8
20260508003700 48 190 2.0 3.0 0.00 0.00 0.00 94 1012.8
20260508003604 48 190 2.0 3.0 0.00 0.00 0.00 94 1012.8
20260508003501 48 190 2.0 3.0 0.00 0.00 0.00 94 1012.8
20260508003400 48 190 2.0 3.0 0.00 0.00 0.00 94 1012.8
20260508003303 48 190 2.0 3.0 0.00 0.00 0.00 94 1012.8
20260508003203 48 190 2.0 3.0 0.00 0.00 0.00 94 1012.8
20260508003110 48 190 1.0 3.0 0.00 0.00 0.00 94 1012.8
20260508003005 48 190 0.0 3.0 0.00 0.00 0.00 94 1012.8
20260508002903 48 190 0.0 3.0 0.00 0.00 0.00 94 1012.9
20260508002800 48 190 0.0 3.0 0.00 0.00 0.00 94 1012.9
20260508002702 48 190 0.0 3.0 0.00 0.00 0.00 94 1012.9
20260508002600 48 190 0.0 3.0 0.00 0.00 0.00 94 1012.9
20260508002403 48 190 1.0 3.0 0.00 0.00 0.00 94 1012.8
20260508002200 49 190 2.0 2.0 0.00 0.00 0.00 94 1012.8
20260508002103 49 190 1.0 2.0 0.00 0.00 0.00 94 1012.9
20260508002000 49 190 1.0 2.0 0.00 0.00 0.00 94 1012.8
20260508001900 49 190 2.0 2.0 0.00 0.00 0.00 94 1012.9
20260508001803 49 190 2.0 2.0 0.00 0.00 0.00 94 1012.9
20260508001659 49 190 2.0 2.0 0.00 0.00 0.00 94 1012.9
20260508001559 49 190 0.0 2.0 0.00 0.00 0.00 94 1013.0
20260508001503 49 190 0.0 2.0 0.00 0.00 0.00 94 1013.0
20260508001359 49 190 0.0 2.0 0.00 0.00 0.00 94 1013.0
20260508001203 49 190 0.0 2.0 0.00 0.00 0.00 94 1013.0
20260508001100 49 190 0.0 2.0 0.00 0.00 0.00 94 1013.0
20260508000800 49 190 1.0 2.0 0.00 0.00 0.00 94 1013.0
20260508000700 49 190 0.0 0.0 0.00 0.00 0.00 94 1013.0
20260508000602 49 190 0.0 0.0 0.00 0.00 0.00 94 1013.0
20260508000500 49 190 0.0 1.0 0.00 0.00 0.00 94 1013.0
20260508000400 49 190 0.0 1.0 0.00 0.00 0.00 94 1013.0
20260508000006 49 190 0.0 3.0 0.00 0.00 0.00 94 1013.0
20260507235900 49 190 0.0 3.0 0.00 0.00 0.00 94 1013.0
20260507235800 49 190 0.0 3.0 0.00 0.00 0.00 94 1013.0
20260507235706 49 190 0.0 3.0 0.00 0.00 0.00 94 1013.0
20260507235459 49 190 1.0 3.0 0.00 0.00 0.00 94 1013.0
20260507235403 49 190 1.0 3.0 0.00 0.00 0.00 94 1013.0
20260507235300 49 190 2.0 3.0 0.00 0.00 0.00 94 1013.0
20260507235200 49 190 2.0 3.0 0.00 0.00 0.00 94 1013.0
20260507234900 49 190 2.0 3.0 0.00 0.00 0.00 94 1013.0
20260507234803 49 190 2.0 2.0 0.00 0.00 0.00 94 1013.0
20260507234600 49 190 1.0 3.0 0.00 0.00 0.00 94 1013.1
20260507234503 50 190 0.0 3.0 0.00 0.00 0.00 94 1013.1
20260507234359 50 190 0.0 3.0 0.00 0.00 0.00 94 1013.0
20260507234203 50 190 2.0 3.0 0.00 0.00 0.00 94 1013.1
20260507234100 50 190 2.0 3.0 0.00 0.00 0.00 94 1013.1
20260507234001 50 190 2.0 3.0 0.00 0.00 0.00 94 1013.1
20260507233905 50 190 2.0 3.0 0.00 0.00 0.00 95 1013.1
20260507233801 50 190 1.0 3.0 0.00 0.00 0.00 95 1013.1
20260507233659 50 190 2.0 3.0 0.00 0.00 0.00 95 1013.1
20260507233602 50 190 2.0 3.0 0.00 0.00 0.00 95 1013.1
20260507233501 50 190 1.0 3.0 0.00 0.00 0.00 95 1013.1
20260507233359 50 190 3.0 4.0 0.00 0.00 0.00 95 1013.1
20260507233301 49 190 2.0 4.0 0.00 0.00 0.00 95 1013.1
20260507233159 49 190 1.0 4.0 0.00 0.00 0.00 94 1013.1
20260507233100 49 190 1.0 4.0 0.00 0.00 0.00 94 1013.1
20260507233005 49 190 2.0 4.0 0.00 0.00 0.00 94 1013.1
20260507232859 49 190 2.0 4.0 0.00 0.00 0.00 94 1013.1
20260507232703 49 190 2.0 4.0 0.00 0.00 0.00 94 1013.1
20260507232600 49 190 2.0 4.0 0.00 0.00 0.00 94 1013.2
20260507232500 49 190 2.0 4.0 0.00 0.00 0.00 94 1013.2
20260507232201 49 190 3.0 4.0 0.00 0.00 0.00 94 1013.1
20260507232105 49 190 3.0 3.0 0.00 0.00 0.00 94 1013.1
20260507232008 49 190 3.0 3.0 0.00 0.00 0.00 94 1013.2
20260507231859 49 190 2.0 3.0 0.00 0.00 0.00 94 1013.2
20260507231804 49 190 2.0 3.0 0.00 0.00 0.00 94 1013.2
20260507231700 49 190 2.0 3.0 0.00 0.00 0.00 94 1013.2
20260507231600 49 190 2.0 3.0 0.00 0.00 0.00 94 1013.1
20260507231503 49 190 2.0 3.0 0.00 0.00 0.00 93 1013.2
20260507231401 49 190 2.0 3.0 0.00 0.00 0.00 93 1013.2
20260507231259 49 190 2.0 3.0 0.00 0.00 0.00 93 1013.2
20260507231205 49 190 3.0 3.0 0.00 0.00 0.00 93 1013.2
20260507231101 49 190 3.0 3.0 0.00 0.00 0.00 93 1013.2
20260507231000 49 190 2.0 4.0 0.00 0.00 0.00 94 1013.2
20260507230902 49 190 2.0 4.0 0.00 0.00 0.00 93 1013.2
20260507230759 49 190 2.0 4.0 0.00 0.00 0.00 94 1013.2
20260507230605 49 190 2.0 4.0 0.00 0.00 0.00 94 1013.2
20260507230500 49 190 2.0 4.0 0.00 0.00 0.00 93 1013.2
20260507230404 49 190 2.0 4.0 0.00 0.00 0.00 93 1013.2
20260507230100 50 190 2.0 4.0 0.00 0.00 0.00 93 1013.2
20260507230006 50 190 3.0 4.0 0.00 0.00 0.00 93 1013.2
20260507225801 50 190 2.0 3.0 0.00 0.00 0.00 93 1013.2
20260507225558 50 190 1.0 1.0 0.00 0.00 0.00 93 1013.2
20260507225500 50 190 0.0 1.0 0.00 0.00 0.00 93 1013.2
20260507225401 50 190 0.0 1.0 0.00 0.00 0.00 93 1013.2
20260507225200 50 190 0.0 1.0 0.00 0.00 0.00 93 1013.2
20260507225104 50 190 1.0 1.0 0.00 0.00 0.00 93 1013.2
20260507225001 50 190 1.0 1.0 0.00 0.00 0.00 93 1013.1
20260507224859 50 190 0.0 2.0 0.00 0.00 0.00 93 1013.1
20260507224802 50 190 0.0 2.0 0.00 0.00 0.00 93 1013.1
20260507224700 50 190 0.0 2.0 0.00 0.00 0.00 93 1013.2
20260507224600 50 190 0.0 3.0 0.00 0.00 0.00 93 1013.1
20260507224504 50 190 0.0 3.0 0.00 0.00 0.00 93 1013.1
20260507224259 50 190 0.0 3.0 0.00 0.00 0.00 93 1013.1
20260507224204 50 190 1.0 4.0 0.00 0.00 0.00 94 1013.1
20260507224100 50 190 0.0 4.0 0.00 0.00 0.00 94 1013.1
20260507224011 50 190 1.0 4.0 0.00 0.00 0.00 94 1013.1
20260507223904 50 190 1.0 4.0 0.00 0.00 0.00 93 1013.1
20260507223702 50 190 2.0 4.0 0.00 0.00 0.00 93 1013.1
20260507223604 50 190 2.0 4.0 0.00 0.00 0.00 93 1013.1
20260507223504 50 190 2.0 4.0 0.00 0.00 0.00 93 1013.1
20260507223400 50 190 3.0 4.0 0.00 0.00 0.00 93 1013.1
20260507223302 50 190 3.0 4.0 0.00 0.00 0.00 93 1013.1
20260507223200 50 190 3.0 4.0 0.00 0.00 0.00 93 1013.1
20260507223059 50 190 3.0 3.0 0.00 0.00 0.00 93 1013.1
20260507222900 50 190 1.0 3.0 0.00 0.00 0.00 93 1013.1
20260507222759 50 190 2.0 3.0 0.00 0.00 0.00 93 1013.1
20260507222702 50 190 1.0 2.0 0.00 0.00 0.00 93 1013.0
20260507222601 50 190 0.0 2.0 0.00 0.00 0.00 93 1013.0
20260507222500 50 190 1.0 2.0 0.00 0.00 0.00 93 1013.0
20260507222408 50 190 0.0 2.0 0.00 0.00 0.00 93 1013.0
20260507222300 50 190 1.0 2.0 0.00 0.00 0.00 93 1013.0
20260507222200 51 190 1.0 1.0 0.00 0.00 0.00 93 1012.9
20260507222058 51 190 1.0 1.0 0.00 0.00 0.00 93 1012.9
20260507222023 51 190 0.0 0.0 0.00 0.00 0.00 93 1012.9
20260507221900 51 190 0.0 1.0 0.00 0.00 0.00 93 1012.9
20260507221800 51 190 0.0 1.0 0.00 0.00 0.00 93 1012.9
20260507221559 51 190 0.0 1.0 0.00 0.00 0.00 93 1012.9
20260507221402 51 190 0.0 1.0 0.00 0.00 0.00 93 1012.9
20260507221259 51 190 0.0 1.0 0.00 0.00 0.00 93 1012.9
20260507221201 51 190 0.0 1.0 0.00 0.00 0.00 92 1012.9
20260507221102 51 190 0.0 1.0 0.00 0.00 0.00 92 1012.9
20260507221002 51 190 0.0 1.0 0.00 0.00 0.00 92 1012.9
20260507220801 51 190 0.0 1.0 0.00 0.00 0.00 93 1012.9
20260507220659 51 190 0.0 1.0 0.00 0.00 0.00 93 1012.8
20260507220559 51 190 0.0 1.0 0.00 0.00 0.00 93 1012.8
20260507220502 51 190 0.0 1.0 0.00 0.00 0.00 93 1012.8
20260507220359 51 190 0.0 1.0 0.00 0.00 0.00 93 1012.8
20260507220301 51 190 1.0 1.0 0.00 0.00 0.00 93 1012.8
20260507220202 51 190 1.0 1.0 0.00 0.00 0.00 93 1012.8
20260507220116 51 190 0.0 1.0 0.00 0.00 0.00 93 1012.8
20260507220009 51 190 1.0 1.0 0.00 0.00 0.00 93 1012.7
20260507215904 51 190 0.0 0.0 0.00 0.01 0.00 93 1012.8
20260507215801 51 190 0.0 1.0 0.00 0.01 0.00 93 1012.7
20260507215700 51 190 0.0 1.0 0.00 0.01 0.00 93 1012.7
20260507215606 51 190 0.0 1.0 0.00 0.01 0.00 93 1012.7
20260507215502 51 190 0.0 1.0 0.00 0.01 0.00 92 1012.7
20260507215306 51 190 0.0 2.0 0.00 0.01 0.00 92 1012.8
20260507215201 51 190 0.0 2.0 0.00 0.01 0.00 92 1012.7
20260507215004 51 190 0.0 2.0 0.00 0.01 0.00 92 1012.7
20260507214901 51 190 0.0 3.0 0.00 0.01 0.00 92 1012.8
20260507214802 51 190 1.0 3.0 0.00 0.01 0.00 92 1012.7
20260507214703 51 190 1.0 3.0 0.00 0.01 0.00 92 1012.8
20260507214601 51 190 0.0 3.0 0.00 0.01 0.00 92 1012.7
20260507214502 51 190 0.0 3.0 0.00 0.01 0.00 92 1012.7
20260507214408 51 190 1.0 3.0 0.00 0.01 0.00 92 1012.7
20260507214300 52 190 1.0 3.0 0.00 0.01 0.00 92 1012.6
20260507214201 52 190 2.0 3.0 0.00 0.01 0.00 92 1012.6
20260507214103 52 190 1.0 3.0 0.00 0.01 0.00 92 1012.7
20260507213901 52 190 2.0 3.0 0.00 0.01 0.00 92 1012.7
20260507213803 52 190 2.0 3.0 0.00 0.01 0.00 92 1012.7
20260507213700 52 190 3.0 3.0 0.00 0.01 0.00 92 1012.7
20260507213504 52 190 2.0 2.0 0.00 0.01 0.00 92 1012.7
20260507213401 52 190 1.0 2.0 0.00 0.01 0.00 92 1012.7
20260507213300 52 190 1.0 2.0 0.00 0.01 0.00 92 1012.7
20260507213101 52 190 1.0 2.0 0.00 0.01 0.00 92 1012.7
20260507213001 52 190 1.0 3.0 0.00 0.01 0.00 92 1012.6
20260507212907 52 190 1.0 3.0 0.00 0.01 0.00 92 1012.6
20260507212701 52 190 0.0 3.0 0.00 0.01 0.00 92 1012.7
20260507212603 52 190 1.0 3.0 0.00 0.01 0.00 92 1012.7
20260507212503 52 190 2.0 3.0 0.00 0.01 0.00 92 1012.7
20260507212401 52 190 1.0 3.0 0.00 0.01 0.00 92 1012.6
20260507212307 52 190 2.0 3.0 0.00 0.01 0.00 92 1012.6
20260507212201 52 190 1.0 3.0 0.00 0.01 0.00 92 1012.7
20260507212059 52 190 1.0 3.0 0.00 0.01 0.00 92 1012.6
20260507212004 52 190 3.0 3.0 0.00 0.01 0.00 92 1012.7
20260507211801 52 35 1.0 2.0 0.00 0.01 0.00 91 1012.7
20260507211601 53 35 1.0 2.0 0.00 0.01 0.00 91 1012.6
20260507211501 53 35 0.0 2.0 0.00 0.01 0.00 91 1012.6
20260507211404 53 35 0.0 2.0 0.00 0.01 0.00 91 1012.6
20260507211301 53 35 0.0 2.0 0.00 0.01 0.00 91 1012.6
20260507211201 53 35 0.0 2.0 0.00 0.01 0.00 91 1012.6
20260507211102 53 35 1.0 2.0 0.00 0.01 0.00 91 1012.6
20260507210900 53 35 1.0 2.0 0.00 0.01 0.00 91 1012.6
20260507210813 53 35 0.0 2.0 0.00 0.01 0.00 91 1012.6
20260507210701 53 35 1.0 2.0 0.00 0.01 0.00 91 1012.5
20260507210600 53 35 2.0 3.0 0.00 0.01 0.00 91 1012.5
20260507210401 53 35 1.0 3.0 0.00 0.01 0.00 91 1012.5
20260507210005 53 35 1.0 4.0 0.00 0.01 0.00 91 1012.5
20260507205904 53 35 1.0 4.0 0.00 0.01 0.00 92 1012.5
20260507205801 53 35 2.0 4.0 0.00 0.01 0.00 92 1012.6
20260507205700 53 35 2.0 4.0 0.00 0.01 0.00 92 1012.6
20260507205603 53 35 2.0 4.0 0.00 0.01 0.00 92 1012.6
20260507205501 53 35 2.0 4.0 0.00 0.01 0.00 92 1012.6
20260507205400 53 35 3.0 4.0 0.00 0.01 0.00 91 1012.6
20260507205201 53 35 4.0 4.0 0.00 0.01 0.00 91 1012.7
20260507205102 53 217 0.0 4.0 0.00 0.01 0.00 91 1012.7
20260507205004 53 217 1.0 4.0 0.00 0.01 0.00 91 1012.7
20260507204901 53 217 3.0 4.0 0.00 0.01 0.00 91 1012.7
20260507204704 53 217 3.0 4.0 0.00 0.01 0.00 90 1012.7
20260507204501 53 217 4.0 4.0 0.00 0.01 0.00 90 1012.6
20260507204404 53 217 3.0 4.0 0.00 0.01 0.00 90 1012.6
20260507204303 53 217 3.0 3.0 0.00 0.01 0.00 90 1012.6
20260507204200 53 217 3.0 3.0 0.00 0.01 0.00 90 1012.6
20260507204001 53 217 1.0 3.0 0.00 0.01 0.00 90 1012.6
20260507203901 53 217 1.0 3.0 0.00 0.01 0.00 90 1012.6
20260507203803 53 217 0.0 3.0 0.00 0.01 0.00 90 1012.7
20260507203702 53 217 0.0 3.0 0.00 0.01 0.00 90 1012.6
20260507203601 53 217 0.0 3.0 0.00 0.01 0.00 90 1012.6
20260507203504 54 217 0.0 3.0 0.00 0.01 0.00 90 1012.6
20260507203400 54 217 1.0 3.0 0.00 0.01 0.00 90 1012.7
20260507203203 54 217 1.0 3.0 0.00 0.01 0.00 90 1012.7
20260507203100 54 217 1.0 3.0 0.00 0.01 0.00 90 1012.7
20260507203001 54 217 2.0 3.0 0.00 0.01 0.00 89 1012.7
20260507202905 54 217 3.0 3.0 0.00 0.01 0.00 89 1012.7
20260507202801 54 98 3.0 3.0 0.00 0.01 0.00 89 1012.7
20260507202700 54 98 2.0 3.0 0.00 0.01 0.00 89 1012.7
20260507202603 54 98 3.0 3.0 0.00 0.01 0.00 89 1012.7
20260507202501 54 98 2.0 3.0 0.00 0.01 0.00 92 1012.7
20260507202401 54 98 1.0 3.0 0.00 0.01 0.00 89 1012.8
20260507202306 54 98 2.0 3.0 0.00 0.01 0.00 89 1012.8
20260507202201 54 98 2.0 3.0 0.00 0.01 0.00 89 1012.8
20260507202100 54 98 2.0 3.0 0.00 0.01 0.00 89 1012.8
20260507202005 54 98 1.0 3.0 0.00 0.01 0.00 89 1012.8
20260507201900 54 98 1.0 3.0 0.00 0.01 0.00 89 1012.7
20260507201800 54 98 2.0 3.0 0.00 0.01 0.00 89 1012.8
20260507201704 54 98 2.0 2.0 0.00 0.01 0.00 89 1012.7
20260507201601 54 98 1.0 2.0 0.00 0.01 0.00 89 1012.7
20260507201501 54 98 1.0 1.0 0.00 0.01 0.00 89 1012.7
20260507201300 55 98 0.0 1.0 0.00 0.01 0.00 89 1012.7
20260507201201 55 98 0.0 2.0 0.00 0.01 0.00 89 1012.7
20260507201102 55 98 0.0 2.0 0.00 0.01 0.00 89 1012.8
20260507200900 55 98 0.0 2.0 0.00 0.01 0.00 88 1012.8
20260507200805 55 98 0.0 3.0 0.00 0.01 0.00 88 1012.8
20260507200701 55 98 0.0 3.0 0.00 0.01 0.00 88 1012.8
20260507200504 55 98 0.0 3.0 0.00 0.01 0.00 88 1012.8
20260507200401 55 98 1.0 3.0 0.00 0.01 0.00 88 1012.8
20260507200300 55 98 0.0 3.0 0.00 0.01 0.00 88 1012.8
20260507200203 55 98 1.0 3.0 0.00 0.01 0.00 88 1012.8
20260507200117 55 98 1.0 3.0 0.00 0.01 0.00 87 1012.8
20260507200007 55 98 1.0 3.0 0.00 0.01 0.00 87 1012.8
20260507195905 55 98 2.0 3.0 0.00 0.01 0.00 87 1012.7
20260507195800 55 98 2.0 3.0 0.00 0.01 0.00 87 1012.8
20260507195709 55 98 1.0 3.0 0.00 0.01 0.00 87 1012.8
20260507195607 55 98 1.0 3.0 0.00 0.01 0.00 87 1012.8
20260507195502 55 98 1.0 3.0 0.00 0.01 0.00 87 1012.7
20260507195401 55 98 1.0 3.0 0.00 0.01 0.00 87 1012.7
20260507195200 55 98 1.0 3.0 0.00 0.01 0.00 87 1012.7
20260507195101 55 98 2.0 3.0 0.00 0.01 0.00 87 1012.7
20260507195007 55 98 2.0 3.0 0.00 0.01 0.00 87 1012.7
20260507194901 56 98 0.0 2.0 0.00 0.01 0.00 87 1012.7
20260507194803 56 98 1.0 2.0 0.00 0.01 0.00 87 1012.7
20260507194704 56 98 2.0 3.0 0.00 0.01 0.00 87 1012.7
20260507194605 56 98 1.0 3.0 0.00 0.01 0.00 87 1012.6
20260507194520 56 98 1.0 3.0 0.00 0.01 0.00 87 1012.6
20260507194307 56 98 1.0 3.0 0.00 0.01 0.00 86 1012.7
20260507194202 56 98 1.0 3.0 0.00 0.01 0.00 86 1012.7
20260507194103 56 98 1.0 3.0 0.00 0.01 0.00 86 1012.7
20260507194002 56 98 0.0 3.0 0.00 0.01 0.00 86 1012.6
20260507193901 56 98 1.0 3.0 0.00 0.01 0.00 86 1012.6
20260507193805 56 98 2.0 3.0 0.00 0.01 0.00 85 1012.6
20260507193700 56 98 1.0 2.0 0.00 0.01 0.00 85 1012.6
20260507193602 56 98 1.0 2.0 0.00 0.01 0.00 85 1012.6
20260507193504 56 98 1.0 2.0 0.00 0.01 0.00 85 1012.6
20260507193400 56 98 1.0 2.0 0.00 0.01 0.00 85 1012.6
20260507193301 57 98 1.0 2.0 0.00 0.01 0.00 84 1012.6
20260507193206 57 98 1.0 2.0 0.00 0.01 0.00 84 1012.6
20260507193101 57 98 0.0 2.0 0.00 0.01 0.00 84 1012.6
20260507193002 57 98 1.0 2.0 0.00 0.01 0.00 84 1012.6
20260507192903 57 98 2.0 2.0 0.00 0.01 0.00 84 1012.6
20260507192801 57 98 2.0 2.0 0.00 0.01 0.00 84 1012.5
20260507192701 57 98 2.0 2.0 0.00 0.01 0.00 84 1012.5
20260507192603 57 98 2.0 2.0 0.00 0.01 0.00 83 1012.5
20260507192501 57 98 2.0 2.0 0.00 0.01 0.00 83 1012.6
20260507192401 57 98 2.0 2.0 0.00 0.01 0.00 83 1012.5
20260507192306 58 98 1.0 1.0 0.00 0.01 0.00 83 1012.5
20260507192059 58 98 0.0 2.0 0.00 0.01 0.00 82 1012.6
20260507191900 58 98 1.0 2.0 0.00 0.01 0.00 82 1012.6
20260507191802 58 98 1.0 2.0 0.00 0.01 0.00 82 1012.5
20260507191601 58 98 1.0 2.0 0.00 0.01 0.00 81 1012.5
20260507191503 59 98 1.0 2.0 0.00 0.01 0.00 81 1012.5
20260507191406 59 98 1.0 2.0 0.00 0.01 0.00 80 1012.5
20260507191300 59 98 0.0 2.0 0.00 0.01 0.00 80 1012.4
20260507191200 59 98 1.0 2.0 0.00 0.01 0.00 80 1012.3
20260507191103 59 98 1.0 2.0 0.00 0.01 0.00 80 1012.3
20260507191001 59 98 1.0 2.0 0.00 0.01 0.00 79 1012.3
20260507190859 60 98 1.0 2.0 0.00 0.01 0.00 79 1012.3
20260507190804 60 98 1.0 3.0 0.00 0.01 0.00 79 1012.3
20260507190601 60 98 1.0 4.0 0.00 0.01 0.00 79 1012.3
20260507190506 60 98 1.0 4.0 0.00 0.01 0.00 79 1012.3
20260507190319 60 98 1.0 5.0 0.00 0.01 0.00 78 1012.3
20260507190210 60 98 2.0 5.0 0.00 0.01 0.00 78 1012.3
20260507190100 60 98 2.0 5.0 0.00 0.01 0.00 78 1012.3
20260507190006 60 98 1.0 5.0 0.00 0.01 0.00 78 1012.3
20260507185903 60 98 2.0 7.0 0.00 0.01 0.00 78 1012.2
20260507185801 60 98 3.0 7.0 0.00 0.01 0.00 77 1012.2
20260507185700 60 106 2.0 7.0 0.00 0.01 0.00 77 1012.2
20260507185501 61 105 3.0 7.0 0.00 0.01 0.00 77 1012.1
20260507185402 61 108 4.0 7.0 0.00 0.01 0.00 77 1012.2
20260507185305 61 116 5.0 7.0 0.00 0.01 0.00 77 1012.1
20260507185205 61 117 4.0 8.0 0.00 0.01 0.00 77 1012.1
20260507185100 61 104 3.0 8.0 0.00 0.01 0.00 77 1012.1
20260507185005 61 100 6.0 8.0 0.00 0.01 0.00 76 1012.1
20260507184859 61 94 7.0 8.0 0.00 0.01 0.00 76 1012.2
20260507184800 61 85 6.0 8.0 0.00 0.01 0.00 76 1012.2
20260507184610 61 72 4.0 8.0 0.00 0.01 0.00 75 1012.2
20260507184501 61 76 5.0 9.0 0.00 0.01 0.00 75 1012.3
20260507184406 61 71 4.0 9.0 0.00 0.01 0.00 76 1012.3
20260507184300 61 78 4.0 9.0 0.00 0.01 0.00 75 1012.2
20260507184201 61 75 5.0 9.0 0.00 0.01 0.00 75 1012.2
20260507184103 61 85 8.0 9.0 0.00 0.01 0.00 74 1012.2
20260507184001 61 92 6.0 9.0 0.00 0.01 0.00 74 1012.2
20260507183901 61 90 3.0 9.0 0.00 0.01 0.00 74 1012.2
20260507183803 62 96 7.0 9.0 0.00 0.01 0.00 74 1012.2
20260507183659 62 90 7.0 9.0 0.00 0.01 0.00 73 1012.2
20260507183559 62 84 6.0 9.0 0.00 0.01 0.00 74 1012.2
20260507183505 62 97 5.0 9.0 0.00 0.01 0.00 73 1012.2
20260507183401 62 67 7.0 9.0 0.00 0.01 0.00 72 1012.2
20260507183301 62 77 7.0 8.0 0.00 0.01 0.00 72 1012.2
20260507183204 62 77 5.0 9.0 0.00 0.01 0.00 72 1012.2
20260507183101 62 77 4.0 9.0 0.00 0.01 0.00 72 1012.2
20260507183001 62 61 3.0 9.0 0.00 0.01 0.00 71 1012.1
20260507182908 62 57 3.0 9.0 0.00 0.01 0.00 71 1012.1
20260507182800 62 80 7.0 9.0 0.00 0.01 0.00 71 1012.1
20260507182701 62 84 7.0 9.0 0.00 0.01 0.00 71 1012.1
20260507182603 63 86 5.0 11.0 0.00 0.01 0.00 71 1012.1
20260507182501 63 96 5.0 11.0 0.00 0.01 0.00 71 1012.0
20260507182401 63 89 7.0 11.0 0.00 0.01 0.00 71 1012.1
20260507182306 63 74 4.0 11.0 0.00 0.01 0.00 70 1012.1
20260507182201 63 95 8.0 11.0 0.00 0.01 0.00 70 1012.0
20260507182004 63 82 7.0 11.0 0.00 0.01 0.00 70 1012.1
20260507181800 63 65 7.0 11.0 0.00 0.01 0.00 69 1012.1
20260507181704 64 75 7.0 11.0 0.00 0.01 0.00 69 1012.1
20260507181559 64 72 10.0 10.0 0.00 0.01 0.00 69 1012.0
20260507181501 64 67 5.0 9.0 0.00 0.01 0.00 69 1012.0
20260507181403 64 74 7.0 9.0 0.00 0.01 0.00 68 1012.0
20260507181301 64 71 5.0 9.0 0.00 0.01 0.00 68 1012.0
20260507181200 64 76 4.0 9.0 0.00 0.01 0.00 68 1012.0
20260507181103 64 76 5.0 9.0 0.00 0.01 0.00 68 1011.9
20260507181002 64 87 6.0 9.0 0.00 0.01 0.00 68 1011.9
20260507180900 65 81 6.0 9.0 0.00 0.01 0.00 68 1011.9
20260507180700 65 96 6.0 9.0 0.00 0.01 0.00 68 1011.9
20260507180600 65 88 8.0 9.0 0.00 0.01 0.00 68 1011.8
20260507180400 65 68 8.0 9.0 0.00 0.01 0.00 67 1011.8
20260507180300 65 71 5.0 8.0 0.00 0.01 0.00 67 1011.8
20260507180204 65 69 3.0 8.0 0.00 0.01 0.00 67 1011.7
20260507180130 65 69 4.0 10.0 0.00 0.01 0.00 67 1011.7
20260507180005 65 59 4.0 10.0 0.00 0.01 0.00 66 1011.7
20260507175909 65 53 3.0 10.0 0.00 0.02 0.00 66 1011.8
20260507175803 66 50 5.0 10.0 0.00 0.02 0.00 66 1011.7
20260507175611 66 48 5.0 10.0 0.00 0.02 0.00 66 1011.7
20260507175500 66 74 7.0 10.0 0.00 0.02 0.00 65 1011.7
20260507175159 66 76 7.0 10.0 0.00 0.02 0.00 65 1011.7
20260507175100 66 63 9.0 10.0 0.00 0.02 0.00 65 1011.7
20260507175005 66 46 5.0 9.0 0.00 0.02 0.00 65 1011.7
20260507174801 66 80 7.0 10.0 0.00 0.02 0.00 65 1011.7
20260507174559 67 68 4.0 11.0 0.00 0.02 0.00 64 1011.6
20260507174403 67 63 7.0 11.0 0.00 0.02 0.00 64 1011.5
20260507174301 67 65 7.0 11.0 0.00 0.02 0.00 64 1011.6
20260507174200 67 73 7.0 11.0 0.00 0.02 0.00 63 1011.6
20260507174104 67 63 7.0 11.0 0.00 0.02 0.00 63 1011.6
20260507173900 67 67 7.0 11.0 0.00 0.02 0.00 63 1011.5
20260507173804 67 76 8.0 11.0 0.00 0.02 0.00 63 1011.5
20260507173602 67 77 8.0 11.0 0.00 0.02 0.00 62 1011.5
20260507173505 68 67 9.0 11.0 0.00 0.02 0.00 61 1011.5
20260507173401 68 69 7.0 11.0 0.00 0.02 0.00 61 1011.5
20260507173203 68 70 9.0 11.0 0.00 0.02 0.00 62 1011.5
20260507173100 68 78 7.0 11.0 0.00 0.02 0.00 61 1011.5
20260507172903 68 74 8.0 11.0 0.00 0.02 0.00 61 1011.5
20260507172800 68 59 7.0 11.0 0.00 0.02 0.00 61 1011.4
20260507172400 68 67 9.0 11.0 0.00 0.02 0.00 60 1011.5
20260507172201 68 47 6.0 11.0 0.00 0.02 0.00 60 1011.6
20260507172100 68 64 5.0 11.0 0.00 0.02 0.00 60 1011.6
20260507171903 68 70 8.0 11.0 0.00 0.02 0.00 60 1011.5
20260507171703 69 52 5.0 11.0 0.00 0.02 0.00 59 1011.5
20260507171600 69 82 10.0 11.0 0.00 0.02 0.00 59 1011.5
20260507171403 69 88 9.0 13.0 0.00 0.02 0.00 59 1011.5
20260507171301 69 76 9.0 13.0 0.00 0.02 0.00 58 1011.5
20260507171108 69 86 8.0 13.0 0.00 0.02 0.00 58 1011.5
20260507170600 69 88 9.0 13.0 0.00 0.02 0.00 58 1011.5
20260507170504 69 75 10.0 13.0 0.00 0.02 0.00 58 1011.5
20260507170359 69 76 13.0 14.0 0.00 0.02 0.00 58 1011.5
20260507170300 69 71 9.0 14.0 0.00 0.02 0.00 58 1011.5